CW2988 Weather Reports


Display with metric or nautical units.
time (UTC)temp
F
wind
direction
speed
MPH
gust
MPH
rain 1hr
in
rain 24hr
in
rain mn
in
humidity
%
barometer
mb
20181113004709 23 87 2.0 7.0 0.00 0.00 0.00 66 1030.1
20181113004603 23 73 2.0 7.0 0.00 0.00 0.00 66 1030.2
20181113004502 23 67 2.0 12.0 0.00 0.00 0.00 66 1030.2
20181113004401 23 73 2.0 12.0 0.00 0.00 0.00 66 1030.1
20181113004301 23 78 2.0 12.0 0.00 0.00 0.00 66 1030.1
20181113004200 23 80 2.0 12.0 0.00 0.00 0.00 66 1030.2
20181113004056 23 83 3.0 14.0 0.00 0.00 0.00 66 1030.1
20181113003956 23 65 2.0 14.0 0.00 0.00 0.00 66 1030.2
20181113003853 23 89 2.0 14.0 0.00 0.00 0.00 65 1030.1
20181113003753 23 74 3.0 14.0 0.00 0.00 0.00 65 1030.2
20181113003650 23 42 4.0 14.0 0.00 0.00 0.00 65 1030.2
20181113003605 23 61 3.0 14.0 0.00 0.00 0.00 65 1030.2
20181113003504 23 70 3.0 14.0 0.00 0.00 0.00 66 1030.2
20181113003302 23 71 3.0 14.0 0.00 0.00 0.00 66 1030.1
20181113003202 23 71 3.0 14.0 0.00 0.00 0.00 66 1030.1
20181113003114 23 82 2.0 14.0 0.00 0.00 0.00 66 1030.1
20181113003011 23 63 0.0 9.0 0.00 0.00 0.00 66 1030.1
20181113002910 23 59 1.0 9.0 0.00 0.00 0.00 66 1030.2
20181113002808 23 71 1.0 9.0 0.00 0.00 0.00 66 1030.1
20181113002650 23 67 1.0 9.0 0.00 0.00 0.00 66 1030.1
20181113002607 23 76 1.0 9.0 0.00 0.00 0.00 66 1030.1
20181113002507 23 74 2.0 9.0 0.00 0.00 0.00 66 1030.1
20181113002406 23 75 2.0 12.0 0.00 0.00 0.00 66 1030.1
20181113002300 23 73 2.0 12.0 0.00 0.00 0.00 66 1030.2
20181113002158 23 76 1.0 12.0 0.00 0.00 0.00 66 1030.1
20181113002107 23 87 2.0 12.0 0.00 0.00 0.00 66 1030.0
20181113002006 23 76 2.0 12.0 0.00 0.00 0.00 66 1030.0
20181113001907 23 66 1.0 12.0 0.00 0.00 0.00 66 1030.0
20181113001804 23 91 1.0 12.0 0.00 0.00 0.00 66 1029.9
20181113001722 23 91 1.0 12.0 0.00 0.00 0.00 66 1030.0
20181113001632 23 91 1.0 12.0 0.00 0.00 0.00 66 1030.0
20181113001509 23 91 1.0 12.0 0.00 0.00 0.00 66 1029.9
20181113001402 23 74 2.0 12.0 0.00 0.00 0.00 66 1030.0
20181113001300 23 63 3.0 12.0 0.00 0.00 0.00 66 1029.9
20181113001203 23 75 3.0 12.0 0.00 0.00 0.00 66 1029.9
20181113001003 23 62 2.0 13.0 0.00 0.00 0.00 66 1030.0
20181113000903 23 73 2.0 13.0 0.00 0.00 0.00 66 1029.9
20181113000801 23 65 4.0 13.0 0.00 0.00 0.00 65 1029.9
20181113000659 23 67 3.0 13.0 0.00 0.00 0.00 65 1029.9
20181113000551 23 65 2.0 13.0 0.00 0.00 0.00 65 1030.0
20181113000455 23 70 3.0 13.0 0.00 0.00 0.00 65 1030.0
20181113000350 23 45 5.0 13.0 0.00 0.00 0.00 65 1029.9
20181113000310 23 72 4.0 15.0 0.00 0.00 0.00 65 1029.9
20181113000228 23 55 4.0 15.0 0.00 0.00 0.00 65 1029.9
20181112235955 23 57 3.0 15.0 0.00 0.00 0.00 65 1029.9
20181112235854 23 72 4.0 15.0 0.00 0.00 0.00 65 1029.9
20181112235753 23 65 5.0 15.0 0.00 0.00 0.00 65 1029.9
20181112235653 23 73 6.0 15.0 0.00 0.00 0.00 65 1029.8
20181112235607 23 76 5.0 15.0 0.00 0.00 0.00 65 1029.8
20181112235506 23 68 4.0 15.0 0.00 0.00 0.00 65 1029.8
20181112235404 23 79 4.0 16.0 0.00 0.00 0.00 65 1029.8
20181112235304 23 45 4.0 16.0 0.00 0.00 0.00 65 1029.8
20181112235157 23 71 3.0 10.0 0.00 0.00 0.00 65 1029.8
20181112235110 23 79 3.0 10.0 0.00 0.00 0.00 65 1029.8
20181112234910 23 75 3.0 15.0 0.00 0.00 0.00 64 1029.9
20181112234809 23 77 2.0 15.0 0.00 0.00 0.00 65 1029.9
20181112234705 23 80 2.0 15.0 0.00 0.00 0.00 65 1030.0
20181112234558 23 61 2.0 15.0 0.00 0.00 0.00 65 1029.9
20181112234455 23 57 3.0 15.0 0.00 0.00 0.00 65 1030.0
20181112234351 23 53 3.0 15.0 0.00 0.00 0.00 65 1029.9
20181112234307 23 71 4.0 15.0 0.00 0.00 0.00 65 1029.9
20181112234210 23 42 5.0 15.0 0.00 0.00 0.00 65 1029.9
20181112234104 23 72 4.0 17.0 0.00 0.00 0.00 65 1029.8
20181112233902 23 67 2.0 17.0 0.00 0.00 0.00 65 1029.8
20181112233757 23 63 3.0 17.0 0.00 0.00 0.00 65 1029.8
20181112233655 23 69 4.0 17.0 0.00 0.00 0.00 65 1029.8
20181112233607 23 61 4.0 17.0 0.00 0.00 0.00 65 1029.8
20181112233506 23 79 4.0 17.0 0.00 0.00 0.00 65 1029.8
20181112233354 23 65 4.0 17.0 0.00 0.00 0.00 65 1029.8
20181112233250 23 62 3.0 17.0 0.00 0.00 0.00 65 1029.8
20181112233210 23 80 2.0 14.0 0.00 0.00 0.00 65 1029.8
20181112233104 23 86 1.0 14.0 0.00 0.00 0.00 65 1029.8
20181112233003 23 72 2.0 14.0 0.00 0.00 0.00 65 1029.7
20181112232900 23 78 4.0 14.0 0.00 0.00 0.00 65 1029.7
20181112232800 23 95 4.0 14.0 0.00 0.00 0.00 65 1029.7
20181112232659 23 74 4.0 14.0 0.00 0.00 0.00 65 1029.8
20181112232551 23 88 3.0 15.0 0.00 0.00 0.00 65 1029.7
20181112232511 23 69 3.0 15.0 0.00 0.00 0.00 65 1029.7
20181112232410 23 59 5.0 15.0 0.00 0.00 0.00 65 1029.7
20181112232310 23 83 6.0 12.0 0.00 0.00 0.00 65 1029.7
20181112232151 23 65 2.0 12.0 0.00 0.00 0.00 65 1029.7
20181112232100 23 59 1.0 12.0 0.00 0.00 0.00 65 1029.7
20181112231957 23 75 2.0 12.0 0.00 0.00 0.00 65 1029.7
20181112231856 23 74 2.0 16.0 0.00 0.00 0.00 65 1029.7
20181112231811 23 75 2.0 16.0 0.00 0.00 0.00 65 1029.6
20181112231710 23 68 2.0 16.0 0.00 0.00 0.00 65 1029.6
20181112231600 23 62 4.0 17.0 0.00 0.00 0.00 64 1029.6
20181112231455 23 71 4.0 17.0 0.00 0.00 0.00 64 1029.6
20181112231358 23 58 4.0 17.0 0.00 0.00 0.00 64 1029.5
20181112231252 23 78 6.0 17.0 0.00 0.00 0.00 64 1029.6
20181112231208 23 78 6.0 17.0 0.00 0.00 0.00 64 1029.6
20181112231101 23 80 4.0 17.0 0.00 0.00 0.00 64 1029.5
20181112231001 23 79 2.0 17.0 0.00 0.00 0.00 64 1029.6
20181112230859 23 57 3.0 17.0 0.00 0.00 0.00 64 1029.6
20181112230759 23 86 4.0 17.0 0.00 0.00 0.00 64 1029.6
20181112230658 23 58 6.0 17.0 0.00 0.00 0.00 64 1029.6
20181112230609 23 46 5.0 17.0 0.00 0.00 0.00 64 1029.6
20181112230505 23 57 3.0 21.0 0.00 0.00 0.00 64 1029.6
20181112230404 23 84 3.0 21.0 0.00 0.00 0.00 64 1029.6
20181112230301 23 80 4.0 21.0 0.00 0.00 0.00 64 1029.6
20181112230156 23 63 4.0 21.0 0.00 0.00 0.00 64 1029.6
20181112230109 23 78 4.0 21.0 0.00 0.00 0.00 64 1029.6
20181112230008 23 81 5.0 21.0 0.00 0.00 0.00 64 1029.6
20181112225902 24 62 6.0 21.0 0.00 0.00 0.00 65 1029.7
20181112225801 24 73 6.0 21.0 0.00 0.00 0.00 65 1029.7
20181112225659 24 57 6.0 21.0 0.00 0.00 0.00 65 1029.6
20181112225609 24 76 5.0 19.0 0.00 0.00 0.00 65 1029.6
20181112225507 24 62 5.0 19.0 0.00 0.00 0.00 65 1029.6
20181112225407 24 74 6.0 19.0 0.00 0.00 0.00 65 1029.6
20181112225308 24 69 7.0 18.0 0.00 0.00 0.00 65 1029.6
20181112225207 24 62 6.0 18.0 0.00 0.00 0.00 65 1029.7
20181112225056 24 61 5.0 18.0 0.00 0.00 0.00 65 1029.6
20181112224955 24 55 5.0 18.0 0.00 0.00 0.00 65 1029.6
20181112224851 24 88 3.0 18.0 0.00 0.00 0.00 65 1029.5
20181112224752 24 66 3.0 18.0 0.00 0.00 0.00 65 1029.6
20181112224651 24 62 4.0 18.0 0.00 0.00 0.00 65 1029.6
20181112224509 24 70 4.0 18.0 0.00 0.00 0.00 65 1029.5
20181112224408 24 90 3.0 18.0 0.00 0.00 0.00 65 1029.6
20181112224307 24 65 3.0 13.0 0.00 0.00 0.00 64 1029.5
20181112224207 24 75 3.0 15.0 0.00 0.00 0.00 64 1029.5
20181112224059 24 95 4.0 15.0 0.00 0.00 0.00 64 1029.6
20181112223950 24 59 3.0 15.0 0.00 0.00 0.00 64 1029.5
20181112223855 24 71 3.0 15.0 0.00 0.00 0.00 64 1029.5
20181112223811 24 61 2.0 15.0 0.00 0.00 0.00 64 1029.5
20181112223710 24 80 3.0 15.0 0.00 0.00 0.00 64 1029.5
20181112223600 24 71 3.0 15.0 0.00 0.00 0.00 64 1029.5
20181112223459 24 73 5.0 16.0 0.00 0.00 0.00 64 1029.5
20181112223357 24 72 3.0 16.0 0.00 0.00 0.00 64 1029.5
20181112223257 24 70 2.0 16.0 0.00 0.00 0.00 64 1029.5
20181112223159 24 74 3.0 16.0 0.00 0.00 0.00 64 1029.5
20181112223052 24 85 3.0 16.0 0.00 0.00 0.00 64 1029.5
20181112222953 24 102 3.0 16.0 0.00 0.00 0.00 64 1029.5
20181112222850 24 65 3.0 16.0 0.00 0.00 0.00 64 1029.5
20181112222809 24 67 3.0 16.0 0.00 0.00 0.00 65 1029.5
20181112222708 25 82 4.0 16.0 0.00 0.00 0.00 65 1029.6
20181112222601 25 83 7.0 16.0 0.00 0.00 0.00 65 1029.6
20181112222503 25 70 9.0 16.0 0.00 0.00 0.00 65 1029.6
20181112222403 24 152 10.0 16.0 0.00 0.00 0.00 65 1029.6
20181112222253 24 152 10.0 16.0 0.00 0.00 0.00 65 1029.5
20181112222151 24 152 10.0 16.0 0.00 0.00 0.00 65 1029.5
20181112222105 24 152 10.0 16.0 0.00 0.00 0.00 65 1029.5
20181112222003 24 152 11.0 16.0 0.00 0.00 0.00 65 1029.5
20181112221902 24 152 11.0 16.0 0.00 0.00 0.00 65 1029.5
20181112221804 24 151 10.0 16.0 0.00 0.00 0.00 66 1029.5
20181112221703 24 151 9.0 15.0 0.00 0.00 0.00 65 1029.5
20181112221558 24 151 9.0 16.0 0.00 0.00 0.00 65 1029.6
20181112221456 24 151 10.0 16.0 0.00 0.00 0.00 65 1029.5
20181112221354 24 151 11.0 16.0 0.00 0.00 0.00 65 1029.5
20181112221251 24 152 12.0 16.0 0.00 0.00 0.00 65 1029.6
20181112221155 24 151 12.0 16.0 0.00 0.00 0.00 65 1029.6
20181112221108 24 152 12.0 16.0 0.00 0.00 0.00 65 1029.5
20181112221006 24 151 12.0 16.0 0.00 0.00 0.00 65 1029.6
20181112220902 24 151 11.0 16.0 0.00 0.00 0.00 66 1029.6
20181112220802 24 152 12.0 16.0 0.00 0.00 0.00 66 1029.5
20181112220700 24 152 12.0 16.0 0.00 0.00 0.00 65 1029.5
20181112220550 24 152 12.0 16.0 0.00 0.00 0.00 66 1029.6
20181112220455 24 151 11.0 16.0 0.00 0.00 0.00 66 1029.6
20181112220352 24 151 10.0 16.0 0.00 0.00 0.00 67 1029.6
20181112220309 24 151 10.0 16.0 0.00 0.00 0.00 67 1029.6
20181112220207 24 151 11.0 16.0 0.00 0.00 0.00 68 1029.6
20181112220055 24 151 12.0 16.0 0.00 0.00 0.00 67 1029.6
20181112220010 23 151 12.0 16.0 0.00 0.00 0.00 67 1029.6
20181112215909 23 152 11.0 16.0 0.00 0.00 0.00 67 1029.7
20181112215805 23 151 11.0 16.0 0.00 0.00 0.00 68 1029.6
20181112215708 23 151 12.0 17.0 0.00 0.00 0.00 67 1029.6
20181112215601 23 151 12.0 17.0 0.00 0.00 0.00 68 1029.6
20181112215501 23 152 11.0 17.0 0.00 0.00 0.00 68 1029.6
20181112215359 23 151 11.0 17.0 0.00 0.00 0.00 68 1029.6
20181112215253 23 151 10.0 18.0 0.00 0.00 0.00 69 1029.6
20181112215151 23 152 11.0 18.0 0.00 0.00 0.00 69 1029.6
20181112215104 23 152 12.0 18.0 0.00 0.00 0.00 69 1029.6
20181112215004 23 151 14.0 18.0 0.00 0.00 0.00 68 1029.6
20181112214902 23 151 14.0 18.0 0.00 0.00 0.00 68 1029.5
20181112214759 23 152 14.0 18.0 0.00 0.00 0.00 69 1029.5
20181112214659 23 151 14.0 18.0 0.00 0.00 0.00 69 1029.5
20181112214611 23 151 14.0 18.0 0.00 0.00 0.00 69 1029.6
20181112214511 23 151 13.0 18.0 0.00 0.00 0.00 70 1029.5
20181112214406 23 152 13.0 18.0 0.00 0.00 0.00 70 1029.5
20181112214310 23 152 15.0 18.0 0.00 0.00 0.00 70 1029.4
20181112214207 24 151 14.0 18.0 0.00 0.00 0.00 70 1029.4
20181112214101 23 151 11.0 18.0 0.00 0.00 0.00 71 1029.4
20181112213958 24 151 9.0 14.0 0.00 0.00 0.00 73 1029.4
20181112213907 23 151 10.0 16.0 0.00 0.00 0.00 73 1029.4
20181112213805 23 151 10.0 18.0 0.00 0.00 0.00 72 1029.5
20181112213705 23 151 10.0 18.0 0.00 0.00 0.00 72 1029.4
20181112213559 23 152 11.0 19.0 0.00 0.00 0.00 72 1029.4
20181112213452 23 151 11.0 19.0 0.00 0.00 0.00 72 1029.5
20181112213352 23 151 12.0 19.0 0.00 0.00 0.00 72 1029.4
20181112213311 23 151 12.0 19.0 0.00 0.00 0.00 72 1029.4
20181112213209 23 151 13.0 19.0 0.00 0.00 0.00 72 1029.5
20181112213102 23 151 14.0 19.0 0.00 0.00 0.00 72 1029.4
20181112213000 23 151 15.0 19.0 0.00 0.00 0.00 71 1029.4
20181112212904 23 152 15.0 19.0 0.00 0.00 0.00 72 1029.3
20181112212804 23 151 15.0 19.0 0.00 0.00 0.00 71 1029.3
20181112212659 23 151 14.0 18.0 0.00 0.00 0.00 72 1029.3
20181112212555 23 151 15.0 18.0 0.00 0.00 0.00 72 1029.3
20181112212453 23 151 15.0 18.0 0.00 0.00 0.00 72 1029.3
20181112212350 23 151 14.0 18.0 0.00 0.00 0.00 73 1029.3
20181112212311 23 152 14.0 18.0 0.00 0.00 0.00 73 1029.3
20181112212106 23 151 13.0 18.0 0.00 0.00 0.00 75 1029.3
20181112212004 23 151 14.0 18.0 0.00 0.00 0.00 75 1029.3
20181112211905 23 151 14.0 18.0 0.00 0.00 0.00 75 1029.3
20181112211801 23 151 13.0 18.0 0.00 0.00 0.00 76 1029.3
20181112211657 23 151 12.0 18.0 0.00 0.00 0.00 76 1029.3
20181112211609 23 151 12.0 18.0 0.00 0.00 0.00 76 1029.3
20181112211510 23 152 13.0 18.0 0.00 0.00 0.00 76 1029.3
20181112211405 23 151 14.0 18.0 0.00 0.00 0.00 75 1029.3
20181112211304 23 151 14.0 18.0 0.00 0.00 0.00 75 1029.2
20181112211159 23 151 13.0 18.0 0.00 0.00 0.00 75 1029.3
20181112211051 23 152 13.0 18.0 0.00 0.00 0.00 75 1029.3
20181112211009 23 151 13.0 18.0 0.00 0.00 0.00 75 1029.3
20181112210907 24 151 14.0 18.0 0.00 0.00 0.00 75 1029.2
20181112210750 24 151 13.0 18.0 0.00 0.00 0.00 75 1029.2
20181112210711 24 151 13.0 18.0 0.00 0.00 0.00 74 1029.2
20181112210603 24 152 14.0 18.0 0.00 0.00 0.00 74 1029.2
20181112210502 24 152 14.0 18.0 0.00 0.00 0.00 74 1029.2
20181112210403 24 151 14.0 18.0 0.00 0.00 0.00 72 1029.2
20181112210301 24 152 14.0 18.0 0.00 0.00 0.00 71 1029.2
20181112210200 24 152 14.0 18.0 0.00 0.00 0.00 71 1029.2
20181112210056 24 152 14.0 18.0 0.00 0.00 0.00 71 1029.2
20181112205955 24 151 14.0 16.0 0.00 0.00 0.00 71 1029.1
20181112205853 24 151 13.0 16.0 0.00 0.00 0.00 70 1029.1
20181112205750 24 152 13.0 16.0 0.00 0.00 0.00 69 1029.1
20181112205711 24 151 12.0 16.0 0.00 0.00 0.00 69 1029.1
20181112205603 24 151 11.0 16.0 0.00 0.00 0.00 70 1029.1
20181112205502 24 151 11.0 16.0 0.00 0.00 0.00 69 1029.2
20181112205403 24 151 11.0 16.0 0.00 0.00 0.00 69 1029.2
20181112205302 24 151 12.0 16.0 0.00 0.00 0.00 68 1029.2
20181112205157 24 151 12.0 16.0 0.00 0.00 0.00 68 1029.2
20181112205111 24 151 13.0 16.0 0.00 0.00 0.00 68 1029.2
20181112205009 24 151 13.0 16.0 0.00 0.00 0.00 68 1029.2
20181112204909 24 151 13.0 16.0 0.00 0.00 0.00 67 1029.2
20181112204804 24 151 13.0 16.0 0.00 0.00 0.00 67 1029.2
20181112204707 24 151 13.0 16.0 0.00 0.00 0.00 67 1029.2
20181112204600 24 152 12.0 16.0 0.00 0.00 0.00 67 1029.1
20181112204357 24 152 13.0 16.0 0.00 0.00 0.00 66 1029.2
20181112204252 25 151 13.0 16.0 0.00 0.00 0.00 66 1029.1
20181112204151 25 152 12.0 16.0 0.00 0.00 0.00 65 1029.1
20181112204105 25 151 11.0 16.0 0.00 0.00 0.00 65 1029.1
20181112204007 25 151 10.0 16.0 0.00 0.00 0.00 65 1029.1
20181112203906 25 151 11.0 16.0 0.00 0.00 0.00 65 1029.1
20181112203807 25 151 11.0 16.0 0.00 0.00 0.00 65 1029.1
20181112203704 25 151 11.0 16.0 0.00 0.00 0.00 65 1029.1
20181112203558 25 152 13.0 16.0 0.00 0.00 0.00 64 1029.1
20181112203456 25 151 13.0 16.0 0.00 0.00 0.00 64 1029.2
20181112203358 25 151 12.0 16.0 0.00 0.00 0.00 65 1029.2
20181112203310 25 151 12.0 16.0 0.00 0.00 0.00 64 1029.2
20181112203208 25 151 11.0 16.0 0.00 0.00 0.00 64 1029.1
20181112203103 25 151 10.0 16.0 0.00 0.00 0.00 65 1029.1
20181112203002 25 152 10.0 16.0 0.00 0.00 0.00 65 1029.2
20181112202859 25 151 10.0 16.0 0.00 0.00 0.00 65 1029.2
20181112202755 25 152 11.0 16.0 0.00 0.00 0.00 65 1029.2
20181112202658 25 152 11.0 16.0 0.00 0.00 0.00 65 1029.2
20181112202552 25 151 11.0 16.0 0.00 0.00 0.00 64 1029.3
20181112202451 25 151 10.0 15.0 0.00 0.00 0.00 64 1029.4
20181112202414 25 151 10.0 15.0 0.00 0.00 0.00 65 1029.4
20181112202308 25 151 11.0 15.0 0.00 0.00 0.00 65 1029.4
20181112202203 25 152 11.0 15.0 0.00 0.00 0.00 65 1029.5
20181112202113 25 152 9.0 15.0 0.00 0.00 0.00 66 1029.4
20181112202004 25 151 9.0 15.0 0.00 0.00 0.00 65 1029.4
20181112201903 25 151 11.0 15.0 0.00 0.00 0.00 64 1029.4
20181112201804 25 152 12.0 15.0 0.00 0.00 0.00 64 1029.4
20181112201700 25 151 12.0 15.0 0.00 0.00 0.00 64 1029.4
20181112201552 25 152 13.0 16.0 0.00 0.00 0.00 65 1029.3
20181112201510 25 151 12.0 16.0 0.00 0.00 0.00 64 1029.3
20181112201408 25 151 12.0 16.0 0.00 0.00 0.00 64 1029.3
20181112201307 25 152 11.0 16.0 0.00 0.00 0.00 64 1029.3
20181112201208 25 151 11.0 16.0 0.00 0.00 0.00 64 1029.3
20181112201100 25 151 11.0 16.0 0.00 0.00 0.00 64 1029.4
20181112200959 25 151 11.0 16.0 0.00 0.00 0.00 63 1029.4
20181112200857 25 151 12.0 16.0 0.00 0.00 0.00 63 1029.5
20181112200756 25 151 12.0 16.0 0.00 0.00 0.00 64 1029.4
20181112200654 25 151 11.0 15.0 0.00 0.00 0.00 64 1029.4
20181112200605 25 151 10.0 15.0 0.00 0.00 0.00 63 1029.4
20181112200508 25 152 10.0 17.0 0.00 0.00 0.00 63 1029.5
20181112200403 25 151 11.0 17.0 0.00 0.00 0.00 63 1029.4
20181112200301 25 151 11.0 17.0 0.00 0.00 0.00 63 1029.5
20181112200221 25 151 11.0 17.0 0.00 0.00 0.00 64 1029.4
20181112200056 25 152 10.0 17.0 0.00 0.00 0.00 64 1029.4
20181112200009 25 151 11.0 17.0 0.00 0.00 0.00 64 1029.4
20181112195908 25 151 13.0 17.0 0.00 0.00 0.00 62 1029.4
20181112195750 25 151 12.0 17.0 0.00 0.00 0.00 62 1029.4
20181112195709 25 151 10.0 17.0 0.00 0.00 0.00 64 1029.4
20181112195604 25 152 10.0 16.0 0.00 0.00 0.00 64 1029.4
20181112195504 25 151 11.0 18.0 0.00 0.00 0.00 63 1029.4
20181112195401 25 152 12.0 18.0 0.00 0.00 0.00 64 1029.4
20181112195258 25 151 12.0 18.0 0.00 0.00 0.00 63 1029.4
20181112195156 25 152 12.0 18.0 0.00 0.00 0.00 64 1029.4
20181112195111 25 151 12.0 19.0 0.00 0.00 0.00 64 1029.4
20181112195010 25 151 13.0 19.0 0.00 0.00 0.00 63 1029.4
20181112194910 25 152 14.0 19.0 0.00 0.00 0.00 63 1029.3
20181112194807 25 151 15.0 19.0 0.00 0.00 0.00 63 1029.3
20181112194706 25 151 15.0 19.0 0.00 0.00 0.00 63 1029.3
20181112194600 25 151 14.0 19.0 0.00 0.00 0.00 64 1029.3
20181112194500 25 152 14.0 19.0 0.00 0.00 0.00 64 1029.3
20181112194400 25 151 15.0 19.0 0.00 0.00 0.00 63 1029.2
20181112194255 25 151 14.0 21.0 0.00 0.00 0.00 63 1029.3
20181112194151 25 152 12.0 21.0 0.00 0.00 0.00 63 1029.2
20181112194106 25 151 12.0 21.0 0.00 0.00 0.00 63 1029.2
20181112193956 25 151 13.0 21.0 0.00 0.00 0.00 63 1029.2
20181112193855 25 152 14.0 21.0 0.00 0.00 0.00 62 1029.2
20181112193658 25 151 15.0 21.0 0.00 0.00 0.00 63 1029.1
20181112193601 25 151 16.0 21.0 0.00 0.00 0.00 61 1029.1
20181112193501 25 151 17.0 21.0 0.00 0.00 0.00 61 1029.1
20181112193400 25 151 16.0 20.0 0.00 0.00 0.00 61 1029.1
20181112193259 25 151 15.0 22.0 0.00 0.00 0.00 61 1029.1
20181112193111 25 151 15.0 22.0 0.00 0.00 0.00 61 1029.1
20181112193011 25 152 15.0 22.0 0.00 0.00 0.00 62 1029.1
20181112192903 25 151 14.0 22.0 0.00 0.00 0.00 61 1029.1
20181112192803 25 152 15.0 22.0 0.00 0.00 0.00 61 1029.0
20181112192702 25 151 15.0 22.0 0.00 0.00 0.00 61 1029.0
20181112192455 25 151 15.0 22.0 0.00 0.00 0.00 61 1028.9
20181112192355 25 151 16.0 19.0 0.00 0.00 0.00 60 1028.8
20181112192258 25 151 16.0 19.0 0.00 0.00 0.00 61 1028.8
20181112192156 25 152 15.0 19.0 0.00 0.00 0.00 61 1028.7
20181112192112 25 151 14.0 21.0 0.00 0.00 0.00 62 1028.7
20181112192006 25 151 14.0 21.0 0.00 0.00 0.00 61 1028.7
20181112191904 25 152 14.0 21.0 0.00 0.00 0.00 61 1028.8
20181112191803 25 151 14.0 21.0 0.00 0.00 0.00 61 1028.7
20181112191701 25 151 15.0 21.0 0.00 0.00 0.00 61 1028.8
20181112191608 25 152 15.0 21.0 0.00 0.00 0.00 61 1028.7
20181112191506 25 152 16.0 21.0 0.00 0.00 0.00 61 1028.8
20181112191404 25 151 17.0 21.0 0.00 0.00 0.00 61 1028.7
20181112191303 25 152 16.0 21.0 0.00 0.00 0.00 61 1028.7
20181112191200 25 151 15.0 21.0 0.00 0.00 0.00 61 1028.8
20181112191054 25 152 14.0 21.0 0.00 0.00 0.00 61 1028.8
20181112191003 25 151 14.0 21.0 0.00 0.00 0.00 61 1028.7
20181112190903 25 152 15.0 21.0 0.00 0.00 0.00 61 1028.8
20181112190803 25 151 15.0 23.0 0.00 0.00 0.00 61 1028.8
20181112190701 26 152 15.0 23.0 0.00 0.00 0.00 61 1028.7
20181112190450 25 152 16.0 23.0 0.00 0.00 0.00 61 1028.7
20181112190411 25 151 16.0 23.0 0.00 0.00 0.00 61 1028.7
20181112190303 25 151 15.0 23.0 0.00 0.00 0.00 62 1028.7
20181112190205 25 151 16.0 23.0 0.00 0.00 0.00 61 1028.7
20181112190111 25 152 16.0 23.0 0.00 0.00 0.00 60 1028.7
20181112190000 25 152 16.0 23.0 0.00 0.00 0.00 60 1028.6
20181112185902 25 151 16.0 21.0 0.00 0.00 0.00 60 1028.6
20181112185758 25 152 15.0 21.0 0.00 0.00 0.00 60 1028.8
20181112185656 25 151 13.0 23.0 0.00 0.00 0.00 61 1028.7
20181112185606 25 152 12.0 23.0 0.00 0.00 0.00 61 1028.8
20181112185503 25 151 15.0 23.0 0.00 0.00 0.00 61 1028.7
20181112185303 25 151 14.0 23.0 0.00 0.00 0.00 61 1028.7
20181112185201 25 152 13.0 23.0 0.00 0.00 0.00 62 1028.7
20181112185055 25 151 16.0 23.0 0.00 0.00 0.00 60 1028.6
20181112185013 25 151 16.0 23.0 0.00 0.00 0.00 61 1028.6
20181112184905 25 151 16.0 23.0 0.00 0.00 0.00 61 1028.6
20181112184802 25 152 16.0 23.0 0.00 0.00 0.00 60 1028.6
20181112184554 25 151 18.0 23.0 0.00 0.00 0.00 60 1028.7
20181112184451 25 151 17.0 23.0 0.00 0.00 0.00 60 1028.7
20181112184411 25 151 16.0 23.0 0.00 0.00 0.00 60 1028.7
20181112184308 25 151 15.0 21.0 0.00 0.00 0.00 61 1028.7
20181112184204 25 152 16.0 21.0 0.00 0.00 0.00 62 1028.8
20181112184054 25 151 16.0 21.0 0.00 0.00 0.00 61 1028.8
20181112183952 25 151 16.0 27.0 0.00 0.00 0.00 61 1028.8
20181112183850 25 152 15.0 27.0 0.00 0.00 0.00 62 1028.8
20181112183811 25 151 15.0 27.0 0.00 0.00 0.00 62 1028.8
20181112183710 25 151 15.0 27.0 0.00 0.00 0.00 61 1028.8
20181112183603 25 151 15.0 27.0 0.00 0.00 0.00 62 1028.8
20181112183455 25 152 15.0 27.0 0.00 0.00 0.00 62 1028.8
20181112183410 25 152 15.0 27.0 0.00 0.00 0.00 61 1028.8
20181112183310 25 151 17.0 27.0 0.00 0.00 0.00 62 1028.9
20181112183211 25 151 18.0 27.0 0.00 0.00 0.00 61 1028.9
20181112183102 25 151 18.0 22.0 0.00 0.00 0.00 62 1028.8
20181112182958 24 151 17.0 22.0 0.00 0.00 0.00 62 1028.9
20181112182858 24 152 17.0 22.0 0.00 0.00 0.00 62 1028.9
20181112182756 24 151 16.0 22.0 0.00 0.00 0.00 62 1028.9
20181112182653 24 152 15.0 22.0 0.00 0.00 0.00 61 1029.0
20181112182607 24 151 16.0 22.0 0.00 0.00 0.00 62 1029.0
20181112182506 24 152 17.0 22.0 0.00 0.00 0.00 63 1029.0
20181112182403 25 151 18.0 22.0 0.00 0.00 0.00 63 1029.0
20181112182302 24 151 17.0 22.0 0.00 0.00 0.00 63 1029.0
20181112182202 24 151 17.0 22.0 0.00 0.00 0.00 63 1029.0
20181112182055 24 152 16.0 20.0 0.00 0.00 0.00 63 1028.9
20181112181954 24 151 15.0 20.0 0.00 0.00 0.00 63 1029.0
20181112181854 24 152 16.0 20.0 0.00 0.00 0.00 63 1029.0
20181112181810 24 151 16.0 20.0 0.00 0.00 0.00 63 1029.0
20181112181704 24 151 16.0 23.0 0.00 0.00 0.00 63 1029.1
20181112181558 24 151 16.0 23.0 0.00 0.00 0.00 63 1029.1
20181112181457 24 151 16.0 23.0 0.00 0.00 0.00 63 1029.1
20181112181355 24 152 14.0 23.0 0.00 0.00 0.00 64 1029.1
20181112181255 24 152 14.0 23.0 0.00 0.00 0.00 63 1029.1
20181112181156 24 152 15.0 23.0 0.00 0.00 0.00 62 1029.2
20181112181106 24 151 16.0 23.0 0.00 0.00 0.00 62 1029.1
20181112181006 24 151 17.0 23.0 0.00 0.00 0.00 62 1029.2
20181112180901 24 151 17.0 23.0 0.00 0.00 0.00 63 1029.1
20181112180758 24 151 17.0 23.0 0.00 0.00 0.00 64 1029.1
20181112180657 24 151 16.0 23.0 0.00 0.00 0.00 63 1029.1
20181112180604 24 151 17.0 23.0 0.00 0.00 0.00 64 1029.1
20181112180506 24 151 17.0 23.0 0.00 0.00 0.00 64 1029.2
20181112180405 24 151 15.0 23.0 0.00 0.00 0.00 64 1029.2
20181112180304 24 152 13.0 20.0 0.00 0.00 0.00 65 1029.3
20181112180219 24 151 12.0 20.0 0.00 0.00 0.00 65 1029.2
20181112180054 24 151 12.0 22.0 0.00 0.00 0.00 64 1029.3
20181112180010 24 151 12.0 22.0 0.00 0.00 0.00 64 1029.3
20181112175908 24 151 13.0 22.0 0.00 0.00 0.00 64 1029.2
20181112175806 24 151 16.0 22.0 0.00 0.00 0.00 64 1029.3
20181112175709 24 151 16.0 22.0 0.00 0.00 0.00 64 1029.3
20181112175603 24 152 16.0 22.0 0.00 0.00 0.00 65 1029.3
20181112175501 24 152 16.0 22.0 0.00 0.00 0.00 65 1029.3
20181112175359 24 151 17.0 22.0 0.00 0.00 0.00 65 1029.4
20181112175256 24 151 18.0 23.0 0.00 0.00 0.00 64 1029.4
20181112175150 24 151 18.0 24.0 0.00 0.00 0.00 64 1029.5
20181112175102 24 152 16.0 24.0 0.00 0.00 0.00 64 1029.5
20181112175006 24 151 15.0 24.0 0.00 0.00 0.00 64 1029.5
20181112174906 24 151 14.0 24.0 0.00 0.00 0.00 63 1029.5
20181112174805 24 151 13.0 24.0 0.00 0.00 0.00 63 1029.6
20181112174251 26 304 10.0 35.0 0.00 0.00 0.00 66 1029.5
20181112174157 26 360 9.0 35.0 0.00 0.00 0.00 66 1029.5
20181112174109 26 315 9.0 35.0 0.00 0.00 0.00 66 1029.6
20181112174009 26 332 9.0 35.0 0.00 0.00 0.00 66 1029.6
20181112173908 26 294 8.0 35.0 0.00 0.00 0.00 66 1029.5
20181112173806 26 294 9.0 35.0 0.00 0.00 0.00 66 1029.6
20181112173706 26 26 11.0 35.0 0.00 0.00 0.00 66 1029.6
20181112173557 26 331 12.0 35.0 0.00 0.00 0.00 66 1029.6
20181112173500 26 304 14.0 35.0 0.00 0.00 0.00 67 1029.6
20181112173356 26 355 12.0 35.0 0.00 0.00 0.00 67 1029.7
20181112173255 26 317 11.0 28.0 0.00 0.00 0.00 66 1029.7
20181112173154 26 360 12.0 28.0 0.00 0.00 0.00 67 1029.8
20181112173108 26 296 10.0 28.0 0.00 0.00 0.00 66 1029.7
20181112173006 26 340 8.0 28.0 0.00 0.00 0.00 66 1029.7
20181112172906 26 291 7.0 28.0 0.00 0.00 0.00 66 1029.7
20181112172807 26 63 10.0 28.0 0.00 0.00 0.00 66 1029.8
20181112172707 26 328 13.0 28.0 0.00 0.00 0.00 66 1029.8
20181112172600 26 316 10.0 28.0 0.00 0.00 0.00 66 1029.8
20181112172458 26 338 7.0 27.0 0.00 0.00 0.00 66 1029.8
20181112172358 26 134 10.0 27.0 0.00 0.00 0.00 66 1029.8
20181112172255 26 19 14.0 27.0 0.00 0.00 0.00 66 1029.9
20181112172154 26 331 15.0 27.0 0.00 0.00 0.00 66 1029.8
20181112172050 26 333 13.0 27.0 0.00 0.00 0.00 67 1029.7
20181112172009 26 323 11.0 27.0 0.00 0.00 0.00 67 1029.7
20181112171905 25 360 9.0 27.0 0.00 0.00 0.00 67 1029.8
20181112171800 25 320 9.0 27.0 0.00 0.00 0.00 67 1029.9
20181112171700 25 32 6.0 29.0 0.00 0.00 0.00 67 1029.8
20181112171552 25 355 5.0 29.0 0.00 0.00 0.00 67 1029.8
20181112171508 25 16 9.0 29.0 0.00 0.00 0.00 67 1029.9
20181112171309 25 360 14.0 29.0 0.00 0.00 0.00 67 1029.9
20181112171209 25 348 16.0 29.0 0.00 0.00 0.00 67 1029.9
20181112171102 25 347 15.0 29.0 0.00 0.00 0.00 68 1030.0
20181112170959 25 355 14.0 29.0 0.00 0.00 0.00 68 1029.9
20181112170901 25 327 15.0 29.0 0.00 0.00 0.00 68 1029.9
20181112170755 25 314 10.0 27.0 0.00 0.00 0.00 69 1029.9
20181112170656 25 321 10.0 27.0 0.00 0.00 0.00 69 1029.9
20181112170607 25 5 13.0 27.0 0.00 0.00 0.00 69 1029.9
20181112170506 25 308 11.0 27.0 0.00 0.00 0.00 69 1030.0
20181112170403 25 342 9.0 27.0 0.00 0.00 0.00 70 1030.0
20181112170259 25 335 12.0 27.0 0.00 0.00 0.00 70 1030.1
20181112170158 25 339 12.0 27.0 0.00 0.00 0.00 70 1030.1
20181112170106 25 279 13.0 26.0 0.00 0.00 0.00 70 1030.1
20181112170007 25 294 15.0 26.0 0.00 0.00 0.00 70 1030.1
20181112165904 25 317 12.0 26.0 0.00 0.00 0.00 70 1030.2
20181112165801 25 285 9.0 30.0 0.00 0.00 0.00 70 1030.2
20181112165700 25 336 9.0 30.0 0.00 0.00 0.00 70 1030.3
20181112165613 25 333 8.0 30.0 0.00 0.00 0.00 70 1030.3
20181112165508 25 351 10.0 30.0 0.00 0.00 0.00 70 1030.3
20181112165408 25 296 13.0 30.0 0.00 0.00 0.00 70 1030.3
20181112165310 25 329 11.0 30.0 0.00 0.00 0.00 70 1030.3
20181112165209 25 12 11.0 30.0 0.00 0.00 0.00 70 1030.3
20181112165100 25 303 15.0 30.0 0.00 0.00 0.00 70 1030.3
20181112164959 25 309 15.0 30.0 0.00 0.00 0.00 70 1030.3
20181112164857 25 348 13.0 29.0 0.00 0.00 0.00 70 1030.2
20181112164755 25 305 14.0 29.0 0.00 0.00 0.00 70 1030.3
20181112164656 25 316 16.0 30.0 0.00 0.00 0.00 70 1030.3
20181112164609 25 343 17.0 30.0 0.00 0.00 0.00 71 1030.3
20181112164509 25 309 13.0 30.0 0.00 0.00 0.00 71 1030.2
20181112164408 25 281 14.0 30.0 0.00 0.00 0.00 71 1030.1
20181112164310 25 336 17.0 30.0 0.00 0.00 0.00 71 1030.1
20181112164205 25 347 15.0 30.0 0.00 0.00 0.00 71 1030.2
20181112164056 25 292 15.0 30.0 0.00 0.00 0.00 71 1030.2
20181112163859 25 299 13.0 30.0 0.00 0.00 0.00 72 1030.1
20181112163758 25 308 8.0 27.0 0.00 0.00 0.00 72 1030.1
20181112163659 25 303 9.0 27.0 0.00 0.00 0.00 72 1030.1
20181112163550 25 329 9.0 27.0 0.00 0.00 0.00 72 1030.1
20181112163512 25 355 11.0 27.0 0.00 0.00 0.00 72 1030.1
20181112163431 25 346 12.0 27.0 0.00 0.00 0.00 72 1030.1
20181112163159 25 309 14.0 25.0 0.00 0.00 0.00 73 1030.1
20181112163053 25 309 14.0 25.0 0.00 0.00 0.00 73 1030.2
20181112162954 25 355 10.0 25.0 0.00 0.00 0.00 73 1030.2
20181112162853 25 304 12.0 25.0 0.00 0.00 0.00 73 1030.2
20181112162751 25 344 13.0 25.0 0.00 0.00 0.00 73 1030.3
20181112162651 25 275 9.0 22.0 0.00 0.00 0.00 73 1030.3
20181112162608 25 355 9.0 22.0 0.00 0.00 0.00 73 1030.3
20181112162507 25 13 10.0 25.0 0.00 0.00 0.00 73 1030.3
20181112162410 25 19 9.0 25.0 0.00 0.00 0.00 74 1030.4
20181112162309 25 309 9.0 25.0 0.00 0.00 0.00 74 1030.4
20181112162208 25 336 10.0 25.0 0.00 0.00 0.00 74 1030.4
20181112162101 25 322 8.0 25.0 0.00 0.00 0.00 74 1030.4
20181112162001 25 338 9.0 25.0 0.00 0.00 0.00 74 1030.5
20181112161901 25 345 11.0 25.0 0.00 0.00 0.00 75 1030.6
20181112161801 25 309 12.0 25.0 0.00 0.00 0.00 75 1030.6
20181112161701 25 318 13.0 25.0 0.00 0.00 0.00 75 1030.7
20181112161554 25 344 10.0 21.0 0.00 0.00 0.00 75 1030.7
20181112161451 25 302 9.0 21.0 0.00 0.00 0.00 75 1030.7
20181112161354 25 326 8.0 21.0 0.00 0.00 0.00 75 1030.7
20181112161252 24 309 8.0 21.0 0.00 0.00 0.00 75 1030.7
20181112161150 24 348 7.0 20.0 0.00 0.00 0.00 76 1030.6
20181112161110 24 355 7.0 20.0 0.00 0.00 0.00 76 1030.6
20181112161006 24 304 6.0 20.0 0.00 0.00 0.00 76 1030.5
20181112160906 24 321 6.0 20.0 0.00 0.00 0.00 76 1030.5
20181112160804 24 307 6.0 22.0 0.00 0.00 0.00 76 1030.5
20181112160702 24 344 5.0 22.0 0.00 0.00 0.00 76 1030.5
20181112160556 24 360 8.0 22.0 0.00 0.00 0.00 76 1030.5
20181112160454 24 298 11.0 22.0 0.00 0.00 0.00 76 1030.5
20181112160358 24 301 11.0 23.0 0.00 0.00 0.00 76 1030.5
20181112160258 24 360 9.0 23.0 0.00 0.00 0.00 76 1030.5
20181112160215 24 323 10.0 23.0 0.00 0.00 0.00 76 1030.5
20181112160108 24 319 12.0 23.0 0.00 0.00 0.00 76 1030.5
20181112160002 24 293 10.0 23.0 0.00 0.00 0.00 77 1030.5
20181112155900 24 315 7.0 23.0 0.00 0.00 0.00 76 1030.5
20181112155802 24 342 6.0 23.0 0.00 0.00 0.00 76 1030.5
20181112155704 24 24 7.0 24.0 0.00 0.00 0.00 76 1030.4
20181112155610 24 302 8.0 24.0 0.00 0.00 0.00 76 1030.4
20181112155504 24 309 8.0 25.0 0.00 0.00 0.00 76 1030.4
20181112155404 24 301 8.0 25.0 0.00 0.00 0.00 76 1030.4
20181112155300 24 355 11.0 28.0 0.00 0.00 0.00 76 1030.4
20181112155158 24 317 12.0 28.0 0.00 0.00 0.00 76 1030.4
20181112155107 24 290 11.0 28.0 0.00 0.00 0.00 76 1030.4
20181112155009 24 321 14.0 28.0 0.00 0.00 0.00 76 1030.4
20181112154909 24 322 13.0 28.0 0.00 0.00 0.00 76 1030.4
20181112154804 24 307 14.0 28.0 0.00 0.00 0.00 76 1030.4
20181112154702 24 301 14.0 28.0 0.00 0.00 0.00 76 1030.4
20181112154555 24 267 13.0 28.0 0.00 0.00 0.00 76 1030.3
20181112154455 24 344 13.0 28.0 0.00 0.00 0.00 76 1030.4
20181112154355 24 309 12.0 26.0 0.00 0.00 0.00 76 1030.3
20181112154257 24 355 10.0 26.0 0.00 0.00 0.00 76 1030.4
20181112154155 24 304 12.0 26.0 0.00 0.00 0.00 76 1030.3
20181112154108 24 348 14.0 26.0 0.00 0.00 0.00 76 1030.4
20181112154003 24 5 14.0 26.0 0.00 0.00 0.00 77 1030.4
20181112153856 24 288 12.0 20.0 0.00 0.00 0.00 77 1030.4
20181112153754 24 349 10.0 19.0 0.00 0.00 0.00 77 1030.4
20181112153651 24 311 8.0 23.0 0.00 0.00 0.00 77 1030.4
20181112153607 24 304 8.0 23.0 0.00 0.00 0.00 77 1030.4
20181112153505 24 17 9.0 23.0 0.00 0.00 0.00 77 1030.5
20181112153301 24 315 11.0 23.0 0.00 0.00 0.00 77 1030.5
20181112153202 24 5 11.0 23.0 0.00 0.00 0.00 77 1030.5
20181112153051 24 313 10.0 23.0 0.00 0.00 0.00 77 1030.5
20181112153011 24 335 10.0 23.0 0.00 0.00 0.00 77 1030.5
20181112152853 24 325 10.0 23.0 0.00 0.00 0.00 77 1030.5
20181112152751 24 302 10.0 25.0 0.00 0.00 0.00 77 1030.4
20181112152712 24 323 9.0 25.0 0.00 0.00 0.00 77 1030.4
20181112152631 24 360 9.0 25.0 0.00 0.00 0.00 77 1030.4
20181112152356 24 309 10.0 25.0 0.00 0.00 0.00 77 1030.4
20181112152256 24 309 10.0 25.0 0.00 0.00 0.00 77 1030.3
20181112152154 24 309 12.0 25.0 0.00 0.00 0.00 77 1030.4
20181112152050 24 298 13.0 25.0 0.00 0.00 0.00 76 1030.4
20181112152010 24 304 12.0 25.0 0.00 0.00 0.00 76 1030.4
20181112151909 24 302 12.0 24.0 0.00 0.00 0.00 76 1030.4
20181112151804 24 347 11.0 24.0 0.00 0.00 0.00 76 1030.4
20181112151701 24 355 13.0 24.0 0.00 0.00 0.00 76 1030.4
20181112151555 24 305 12.0 24.0 0.00 0.00 0.00 76 1030.4
20181112151453 24 282 9.0 24.0 0.00 0.00 0.00 76 1030.5
20181112151351 24 261 9.0 24.0 0.00 0.00 0.00 76 1030.6
20181112151309 24 336 8.0 24.0 0.00 0.00 0.00 76 1030.6
20181112151206 24 292 13.0 27.0 0.00 0.00 0.00 76 1030.6
20181112151056 24 294 12.0 27.0 0.00 0.00 0.00 76 1030.7
20181112150954 24 294 7.0 27.0 0.00 0.00 0.00 76 1030.7
20181112150905 24 327 6.0 27.0 0.00 0.00 0.00 76 1030.7
20181112150803 24 355 9.0 27.0 0.00 0.00 0.00 76 1030.7
20181112150708 24 302 10.0 27.0 0.00 0.00 0.00 76 1030.7
20181112150601 24 272 13.0 27.0 0.00 0.00 0.00 76 1030.7
20181112150457 24 340 12.0 27.0 0.00 0.00 0.00 76 1030.7
20181112150356 24 320 10.0 21.0 0.00 0.00 0.00 76 1030.7
20181112150257 24 316 13.0 21.0 0.00 0.00 0.00 76 1030.7
20181112150153 24 302 11.0 21.0 0.00 0.00 0.00 76 1030.7
20181112150107 24 322 10.0 20.0 0.00 0.00 0.00 76 1030.7
20181112150011 24 355 9.0 20.0 0.00 0.00 0.00 76 1030.7
20181112145852 24 329 10.0 20.0 0.00 0.00 0.00 76 1030.5
20181112145751 24 302 8.0 20.0 0.00 0.00 0.00 76 1030.5
20181112145710 24 302 7.0 20.0 0.00 0.00 0.00 76 1030.5
20181112145602 24 296 9.0 20.0 0.00 0.00 0.00 76 1030.5
20181112145501 24 355 11.0 20.0 0.00 0.00 0.00 76 1030.5
20181112145359 24 295 11.0 18.0 0.00 0.00 0.00 76 1030.4
20181112145301 24 332 9.0 19.0 0.00 0.00 0.00 76 1030.4
20181112145200 24 288 7.0 19.0 0.00 0.00 0.00 76 1030.3
20181112145054 24 331 7.0 19.0 0.00 0.00 0.00 76 1030.3
20181112144951 24 351 8.0 19.0 0.00 0.00 0.00 76 1030.2
20181112144912 24 327 9.0 22.0 0.00 0.00 0.00 76 1030.2
20181112144810 24 304 9.0 22.0 0.00 0.00 0.00 76 1030.2
20181112144652 24 5 7.0 22.0 0.00 0.00 0.00 76 1030.2
20181112144607 24 265 8.0 30.0 0.00 0.00 0.00 76 1030.1
20181112144500 24 335 9.0 30.0 0.00 0.00 0.00 76 1030.0
20181112144400 24 341 9.0 30.0 0.00 0.00 0.00 76 1030.0
20181112144258 24 279 11.0 30.0 0.00 0.00 0.00 76 1030.0
20181112144158 24 344 13.0 30.0 0.00 0.00 0.00 76 1030.0
20181112144110 24 320 12.0 30.0 0.00 0.00 0.00 76 1030.0
20181112144006 24 290 9.0 30.0 0.00 0.00 0.00 76 1030.0
20181112143907 24 312 13.0 30.0 0.00 0.00 0.00 76 1030.0
20181112143807 24 325 14.0 30.0 0.00 0.00 0.00 76 1029.9
20181112143705 24 346 12.0 25.0 0.00 0.00 0.00 76 1029.9
20181112143601 24 355 13.0 25.0 0.00 0.00 0.00 76 1029.9
20181112143456 24 317 13.0 25.0 0.00 0.00 0.00 76 1029.9
20181112143415 24 303 11.0 25.0 0.00 0.00 0.00 76 1029.8
20181112143253 24 284 11.0 25.0 0.00 0.00 0.00 76 1029.8
20181112143151 24 333 13.0 25.0 0.00 0.00 0.00 76 1029.8
20181112143106 24 294 15.0 25.0 0.00 0.00 0.00 76 1029.8
20181112143004 24 304 13.0 25.0 0.00 0.00 0.00 76 1029.8
20181112142903 24 342 11.0 22.0 0.00 0.00 0.00 76 1029.8
20181112142758 24 299 13.0 24.0 0.00 0.00 0.00 76 1029.9
20181112142656 24 349 13.0 26.0 0.00 0.00 0.00 76 1029.8
20181112142557 24 341 7.0 26.0 0.00 0.00 0.00 76 1029.8
20181112142455 24 5 8.0 26.0 0.00 0.00 0.00 76 1029.8
20181112142354 24 303 10.0 26.0 0.00 0.00 0.00 76 1029.8
20181112142309 24 313 10.0 26.0 0.00 0.00 0.00 76 1029.7
20181112142205 24 346 10.0 26.0 0.00 0.00 0.00 76 1029.6
20181112142059 24 342 14.0 26.0 0.00 0.00 0.00 76 1029.7
20181112141955 24 302 14.0 32.0 0.00 0.00 0.00 76 1029.7
20181112141856 24 349 14.0 32.0 0.00 0.00 0.00 76 1029.7
20181112141756 24 292 14.0 32.0 0.00 0.00 0.00 76 1029.7
20181112141655 24 293 14.0 32.0 0.00 0.00 0.00 76 1029.7
20181112141611 24 301 13.0 32.0 0.00 0.00 0.00 76 1029.6
20181112141449 24 355 10.0 32.0 0.00 0.00 0.00 76 1029.7
20181112141410 24 350 11.0 32.0 0.00 0.00 0.00 76 1029.7
20181112141309 24 328 13.0 32.0 0.00 0.00 0.00 76 1029.7
20181112141151 24 327 13.0 32.0 0.00 0.00 0.00 76 1029.6
20181112141108 24 310 12.0 32.0 0.00 0.00 0.00 76 1029.6
20181112141007 24 305 8.0 23.0 0.00 0.00 0.00 76 1029.5
20181112140905 24 312 9.0 23.0 0.00 0.00 0.00 76 1029.5
20181112140806 24 300 10.0 23.0 0.00 0.00 0.00 76 1029.5
20181112140704 24 317 11.0 31.0 0.00 0.00 0.00 76 1029.4
20181112140608 24 311 11.0 31.0 0.00 0.00 0.00 76 1029.3
20181112140354 24 309 9.0 31.0 0.00 0.00 0.00 76 1029.4
20181112140252 24 293 6.0 31.0 0.00 0.00 0.00 76 1029.3
20181112140208 24 16 8.0 33.0 0.00 0.00 0.00 76 1029.3
20181112140059 24 301 9.0 33.0 0.00 0.00 0.00 76 1029.2
20181112135955 24 333 10.0 33.0 0.00 0.00 0.00 76 1029.2
20181112135857 24 336 13.0 33.0 0.00 0.00 0.00 76 1029.2
20181112135751 24 306 16.0 33.0 0.00 0.00 0.00 76 1029.2
20181112135709 24 355 16.0 33.0 0.00 0.00 0.00 76 1029.2
20181112135602 24 295 13.0 33.0 0.00 0.00 0.00 76 1029.1
20181112135502 24 342 13.0 33.0 0.00 0.00 0.00 76 1029.1
20181112135357 24 323 13.0 33.0 0.00 0.00 0.00 77 1029.1
20181112135252 24 301 8.0 24.0 0.00 0.00 0.00 76 1029.0
20181112135156 24 302 9.0 24.0 0.00 0.00 0.00 76 1029.1
20181112135108 24 328 11.0 24.0 0.00 0.00 0.00 76 1029.1
20181112135009 24 305 12.0 24.0 0.00 0.00 0.00 77 1029.1
20181112134908 24 306 10.0 24.0 0.00 0.00 0.00 77 1029.1
20181112134808 24 329 12.0 24.0 0.00 0.00 0.00 77 1029.1
20181112134707 24 288 14.0 24.0 0.00 0.00 0.00 77 1029.0
20181112134558 24 300 10.0 24.0 0.00 0.00 0.00 77 1029.0
20181112134459 24 284 10.0 30.0 0.00 0.00 0.00 77 1029.0
20181112134359 24 338 10.0 30.0 0.00 0.00 0.00 77 1029.0
20181112134257 24 283 11.0 30.0 0.00 0.00 0.00 77 1029.0
20181112134152 24 316 12.0 30.0 0.00 0.00 0.00 77 1029.0
20181112134104 24 336 11.0 30.0 0.00 0.00 0.00 77 1029.0
20181112133954 24 333 8.0 30.0 0.00 0.00 0.00 77 1029.0
20181112133854 24 285 10.0 30.0 0.00 0.00 0.00 77 1029.1
20181112133754 24 304 14.0 30.0 0.00 0.00 0.00 77 1029.2
20181112133608 24 300 14.0 28.0 0.00 0.00 0.00 77 1029.2
20181112133508 24 317 12.0 28.0 0.00 0.00 0.00 77 1029.1
20181112133405 24 296 9.0 28.0 0.00 0.00 0.00 77 1029.0
20181112133304 24 322 6.0 25.0 0.00 0.00 0.00 77 1029.0
20181112133205 24 350 8.0 25.0 0.00 0.00 0.00 77 1029.0
20181112133102 24 310 10.0 25.0 0.00 0.00 0.00 77 1028.9
20181112133001 24 323 11.0 25.0 0.00 0.00 0.00 77 1028.9
20181112132901 24 350 12.0 25.0 0.00 0.00 0.00 77 1028.9
20181112132758 24 310 10.0 25.0 0.00 0.00 0.00 77 1028.9
20181112132610 24 282 13.0 25.0 0.00 0.00 0.00 77 1028.9
20181112132514 24 294 13.0 20.0 0.00 0.00 0.00 78 1029.0
20181112132354 24 322 9.0 16.0 0.00 0.00 0.00 78 1029.0
20181112132254 24 298 7.0 16.0 0.00 0.00 0.00 78 1029.0
20181112132154 24 321 6.0 14.0 0.00 0.00 0.00 78 1029.0
20181112132107 24 300 8.0 15.0 0.00 0.00 0.00 78 1028.9
20181112132004 24 360 7.0 16.0 0.00 0.00 0.00 78 1028.9
20181112131904 24 297 6.0 16.0 0.00 0.00 0.00 78 1028.9
20181112131800 24 330 4.0 16.0 0.00 0.00 0.00 78 1028.9
20181112131705 24 305 3.0 16.0 0.00 0.00 0.00 77 1028.9
20181112131600 24 338 5.0 17.0 0.00 0.00 0.00 77 1028.9
20181112131500 24 325 5.0 22.0 0.00 0.00 0.00 77 1028.9
20181112131358 24 346 5.0 22.0 0.00 0.00 0.00 77 1028.9
20181112131257 24 63 6.0 22.0 0.00 0.00 0.00 77 1028.9
20181112131156 24 9 10.0 22.0 0.00 0.00 0.00 77 1028.9
20181112131106 24 348 9.0 22.0 0.00 0.00 0.00 77 1028.9
20181112131008 24 311 9.0 22.0 0.00 0.00 0.00 77 1028.8
20181112130908 24 306 9.0 22.0 0.00 0.00 0.00 77 1028.9
20181112130758 24 26 9.0 22.0 0.00 0.00 0.00 77 1028.9
20181112130716 24 348 8.0 22.0 0.00 0.00 0.00 77 1028.8
20181112130636 24 326 8.0 22.0 0.00 0.00 0.00 77 1028.9
20181112130548 24 355 4.0 16.0 0.00 0.00 0.00 77 1028.9
20181112130004 24 330 6.0 17.0 0.00 0.00 0.00 77 1029.0
20181112125858 24 348 5.0 17.0 0.00 0.00 0.00 77 1029.0
20181112125757 24 63 7.0 18.0 0.00 0.00 0.00 77 1029.0
20181112125700 24 325 8.0 18.0 0.00 0.00 0.00 77 1029.1
20181112125555 24 5 6.0 18.0 0.00 0.00 0.00 77 1029.0
20181112125454 24 313 5.0 18.0 0.00 0.00 0.00 77 1029.0
20181112125354 24 355 4.0 18.0 0.00 0.00 0.00 77 1028.9
20181112125210 24 336 7.0 19.0 0.00 0.00 0.00 77 1028.9
20181112125103 24 11 8.0 19.0 0.00 0.00 0.00 78 1028.9
20181112125005 24 336 6.0 19.0 0.00 0.00 0.00 77 1028.9
20181112124905 24 12 3.0 19.0 0.00 0.00 0.00 78 1028.9
20181112124804 24 327 4.0 19.0 0.00 0.00 0.00 78 1028.8
20181112124703 24 329 6.0 20.0 0.00 0.00 0.00 77 1028.7
20181112124554 24 355 5.0 20.0 0.00 0.00 0.00 77 1028.7
20181112124451 24 13 5.0 20.0 0.00 0.00 0.00 77 1028.5
20181112124357 24 355 7.0 20.0 0.00 0.00 0.00 77 1028.4
20181112124251 24 299 6.0 20.0 0.00 0.00 0.00 77 1028.4
20181112124154 24 335 6.0 20.0 0.00 0.00 0.00 77 1028.3
20181112124109 24 360 8.0 20.0 0.00 0.00 0.00 77 1028.4
20181112124007 24 355 11.0 23.0 0.00 0.00 0.00 77 1028.3
20181112123907 24 275 11.0 25.0 0.00 0.00 0.00 77 1028.3
20181112123806 24 295 8.0 25.0 0.00 0.00 0.00 77 1028.4
20181112123708 24 355 8.0 25.0 0.00 0.00 0.00 77 1028.4
20181112123601 24 293 8.0 25.0 0.00 0.00 0.00 77 1028.3
20181112123500 24 5 7.0 25.0 0.00 0.00 0.00 77 1028.3
20181112123400 24 305 7.0 25.0 0.00 0.00 0.00 77 1028.3
20181112123259 24 310 11.0 25.0 0.00 0.00 0.00 77 1028.3
20181112123156 24 288 12.0 25.0 0.00 0.00 0.00 77 1028.3
20181112122953 24 330 10.0 26.0 0.00 0.00 0.00 77 1028.3
20181112122809 24 9 9.0 26.0 0.00 0.00 0.00 77 1028.2
20181112122708 24 338 8.0 26.0 0.00 0.00 0.00 77 1028.2
20181112122601 24 309 10.0 26.0 0.00 0.00 0.00 77 1028.2
20181112122500 24 5 12.0 26.0 0.00 0.00 0.00 77 1028.1
20181112122359 24 327 13.0 26.0 0.00 0.00 0.00 77 1028.1
20181112122302 24 333 9.0 28.0 0.00 0.00 0.00 77 1028.0
20181112122201 24 301 7.0 28.0 0.00 0.00 0.00 77 1028.0
20181112122055 24 347 9.0 28.0 0.00 0.00 0.00 77 1028.1
20181112121950 24 360 10.0 28.0 0.00 0.00 0.00 77 1028.0
20181112121910 24 350 10.0 28.0 0.00 0.00 0.00 77 1028.0
20181112121655 24 333 13.0 28.0 0.00 0.00 0.00 77 1028.0
20181112121609 24 323 15.0 28.0 0.00 0.00 0.00 77 1028.1
20181112121508 24 302 16.0 28.0 0.00 0.00 0.00 77 1028.0
20181112121406 24 296 12.0 24.0 0.00 0.00 0.00 77 1028.0
20181112121306 24 300 9.0 20.0 0.00 0.00 0.00 77 1028.0
20181112121205 24 325 10.0 20.0 0.00 0.00 0.00 77 1028.0
20181112121059 24 337 11.0 22.0 0.00 0.00 0.00 77 1028.0
20181112120900 24 327 6.0 22.0 0.00 0.00 0.00 77 1028.0
20181112120758 24 360 6.0 22.0 0.00 0.00 0.00 77 1028.0
20181112120659 24 348 6.0 22.0 0.00 0.00 0.00 77 1028.0
20181112120553 24 323 5.0 22.0 0.00 0.00 0.00 77 1028.0
20181112120452 24 355 8.0 22.0 0.00 0.00 0.00 77 1028.0
20181112120352 24 17 11.0 22.0 0.00 0.00 0.00 77 1028.0
20181112120316 24 304 9.0 22.0 0.00 0.00 0.00 77 1028.0
20181112120233 24 302 8.0 22.0 0.00 0.00 0.00 77 1028.0
20181112120114 24 355 6.0 22.0 0.00 0.00 0.00 77 1028.0
20181112120005 24 355 6.0 22.0 0.00 0.00 0.00 77 1028.0
20181112115906 24 355 8.0 22.0 0.00 0.00 0.00 77 1028.0
20181112115804 24 31 10.0 22.0 0.00 0.00 0.00 78 1027.9
20181112115700 24 309 10.0 22.0 0.00 0.00 0.00 78 1027.9
20181112115558 24 300 9.0 22.0 0.00 0.00 0.00 78 1027.9
20181112115458 24 296 10.0 22.0 0.00 0.00 0.00 78 1027.9
20181112115356 24 360 9.0 21.0 0.00 0.00 0.00 78 1027.8
20181112115252 24 5 5.0 21.0 0.00 0.00 0.00 78 1027.8
20181112115151 24 94 5.0 21.0 0.00 0.00 0.00 78 1027.8
20181112115106 24 331 7.0 21.0 0.00 0.00 0.00 78 1027.8
20181112115003 24 344 10.0 21.0 0.00 0.00 0.00 78 1027.8
20181112114905 24 344 9.0 22.0 0.00 0.00 0.00 78 1027.8
20181112114704 24 34 10.0 22.0 0.00 0.00 0.00 78 1027.8
20181112114557 24 348 6.0 22.0 0.00 0.00 0.00 78 1027.8
20181112114455 24 355 4.0 22.0 0.00 0.00 0.00 78 1027.8
20181112114351 24 316 7.0 23.0 0.00 0.00 0.00 78 1027.8
20181112114310 24 340 8.0 23.0 0.00 0.00 0.00 78 1027.8
20181112114154 24 327 10.0 23.0 0.00 0.00 0.00 78 1027.7
20181112114106 24 310 9.0 23.0 0.00 0.00 0.00 78 1027.7
20181112114006 24 304 7.0 23.0 0.00 0.00 0.00 78 1027.8
20181112113905 24 339 8.0 23.0 0.00 0.00 0.00 78 1027.8
20181112113800 24 342 8.0 23.0 0.00 0.00 0.00 78 1027.8
20181112113700 24 349 11.0 23.0 0.00 0.00 0.00 78 1027.8
20181112113555 24 302 11.0 23.0 0.00 0.00 0.00 78 1027.9
20181112113458 24 309 10.0 17.0 0.00 0.00 0.00 78 1027.9
20181112113357 24 313 9.0 17.0 0.00 0.00 0.00 78 1027.9
20181112113256 24 343 7.0 17.0 0.00 0.00 0.00 78 1027.9
20181112113156 24 345 7.0 17.0 0.00 0.00 0.00 78 1028.0
20181112113106 24 355 6.0 17.0 0.00 0.00 0.00 78 1028.0
20181112112906 24 328 8.0 17.0 0.00 0.00 0.00 78 1028.1
20181112112805 24 338 9.0 17.0 0.00 0.00 0.00 78 1028.2
20181112112702 24 281 6.0 17.0 0.00 0.00 0.00 78 1028.2
20181112112556 24 321 4.0 13.0 0.00 0.00 0.00 78 1028.3
20181112112456 24 332 1.0 14.0 0.00 0.00 0.00 78 1028.3
20181112112354 24 347 3.0 14.0 0.00 0.00 0.00 78 1028.3
20181112112312 24 349 4.0 14.0 0.00 0.00 0.00 78 1028.3
20181112112207 24 355 5.0 14.0 0.00 0.00 0.00 78 1028.3
20181112112103 24 325 3.0 14.0 0.00 0.00 0.00 78 1028.3
20181112112001 24 340 3.0 14.0 0.00 0.00 0.00 78 1028.3
20181112111901 24 318 3.0 22.0 0.00 0.00 0.00 78 1028.3
20181112111811 24 333 4.0 22.0 0.00 0.00 0.00 78 1028.2
20181112111711 24 332 6.0 22.0 0.00 0.00 0.00 78 1028.3
20181112111602 24 328 5.0 22.0 0.00 0.00 0.00 78 1028.2
20181112111502 24 18 5.0 23.0 0.00 0.00 0.00 78 1028.2
20181112111405 24 351 6.0 23.0 0.00 0.00 0.00 78 1028.3
20181112111304 24 335 8.0 23.0 0.00 0.00 0.00 78 1028.3
20181112111203 24 22 8.0 23.0 0.00 0.00 0.00 78 1028.3
20181112111055 24 348 8.0 23.0 0.00 0.00 0.00 78 1028.4
20181112110900 24 299 8.0 23.0 0.00 0.00 0.00 78 1028.3
20181112110758 24 324 10.0 23.0 0.00 0.00 0.00 78 1028.4
20181112110701 24 345 9.0 23.0 0.00 0.00 0.00 78 1028.3
20181112110554 24 5 6.0 21.0 0.00 0.00 0.00 78 1028.4
20181112110452 24 355 7.0 21.0 0.00 0.00 0.00 78 1028.3
20181112110253 24 332 12.0 21.0 0.00 0.00 0.00 78 1028.4
20181112110150 24 292 12.0 21.0 0.00 0.00 0.00 78 1028.3
20181112110101 24 304 9.0 21.0 0.00 0.00 0.00 78 1028.3
20181112110002 24 294 5.0 18.0 0.00 0.00 0.00 78 1028.2
20181112105901 24 341 5.0 18.0 0.00 0.00 0.00 78 1028.1
20181112105801 24 341 5.0 18.0 0.00 0.00 0.00 78 1028.1
20181112105658 24 341 5.0 18.0 0.00 0.00 0.00 78 1028.0
20181112105551 24 341 6.0 18.0 0.00 0.00 0.00 78 1028.0
20181112105507 24 327 8.0 18.0 0.00 0.00 0.00 78 1028.0
20181112105406 24 304 8.0 18.0 0.00 0.00 0.00 78 1028.0
20181112105310 24 284 7.0 16.0 0.00 0.00 0.00 78 1028.0
20181112105210 24 320 6.0 12.0 0.00 0.00 0.00 78 1028.0
20181112105058 24 355 6.0 17.0 0.00 0.00 0.00 78 1028.0
20181112104959 24 312 3.0 17.0 0.00 0.00 0.00 78 1028.0
20181112104858 24 330 2.0 25.0 0.00 0.00 0.00 78 1028.0
20181112104757 24 338 2.0 25.0 0.00 0.00 0.00 78 1028.0
20181112104659 24 346 3.0 25.0 0.00 0.00 0.00 78 1027.9
20181112104555 24 308 6.0 25.0 0.00 0.00 0.00 78 1027.9
20181112104454 24 313 6.0 25.0 0.00 0.00 0.00 78 1027.9
20181112104354 24 308 7.0 25.0 0.00 0.00 0.00 78 1027.9
20181112104254 24 335 8.0 25.0 0.00 0.00 0.00 78 1027.8
20181112104210 24 336 7.0 25.0 0.00 0.00 0.00 78 1027.8
20181112104103 24 9 9.0 25.0 0.00 0.00 0.00 78 1027.8
20181112104006 24 329 7.0 18.0 0.00 0.00 0.00 78 1027.8
20181112103907 24 341 3.0 18.0 0.00 0.00 0.00 78 1027.8
20181112103806 24 316 3.0 22.0 0.00 0.00 0.00 78 1027.8
20181112103704 24 347 4.0 22.0 0.00 0.00 0.00 78 1027.7
20181112103456 24 330 9.0 22.0 0.00 0.00 0.00 78 1027.7
20181112103355 24 304 7.0 22.0 0.00 0.00 0.00 78 1027.7
20181112103259 24 360 9.0 22.0 0.00 0.00 0.00 78 1027.7
20181112103157 24 329 11.0 22.0 0.00 0.00 0.00 78 1027.6
20181112103011 24 304 8.0 22.0 0.00 0.00 0.00 78 1027.6
20181112102909 24 304 7.0 22.0 0.00 0.00 0.00 78 1027.6
20181112102656 24 290 9.0 24.0 0.00 0.00 0.00 78 1027.6
20181112102553 24 321 8.0 24.0 0.00 0.00 0.00 78 1027.5
20181112102451 24 336 11.0 24.0 0.00 0.00 0.00 78 1027.5
20181112102408 24 311 11.0 24.0 0.00 0.00 0.00 78 1027.5
20181112102308 24 319 9.0 24.0 0.00 0.00 0.00 78 1027.5
20181112102207 24 296 11.0 24.0 0.00 0.00 0.00 78 1027.5
20181112102101 24 298 14.0 24.0 0.00 0.00 0.00 78 1027.5
20181112101959 24 283 10.0 22.0 0.00 0.00 0.00 78 1027.4
20181112101755 24 338 10.0 20.0 0.00 0.00 0.00 78 1027.5
20181112101652 24 273 9.0 20.0 0.00 0.00 0.00 78 1027.5
20181112101605 24 315 7.0 20.0 0.00 0.00 0.00 78 1027.5
20181112101503 24 306 8.0 20.0 0.00 0.00 0.00 78 1027.4
20181112101402 24 303 9.0 20.0 0.00 0.00 0.00 78 1027.5
20181112101301 24 316 9.0 20.0 0.00 0.00 0.00 78 1027.4
20181112101159 24 333 8.0 20.0 0.00 0.00 0.00 78 1027.4
20181112101108 24 319 7.0 20.0 0.00 0.00 0.00 78 1027.4
20181112101006 24 340 9.0 20.0 0.00 0.00 0.00 78 1027.4
20181112100906 24 323 9.0 22.0 0.00 0.00 0.00 78 1027.5
20181112100803 24 295 8.0 22.0 0.00 0.00 0.00 78 1027.5
20181112100702 24 319 8.0 22.0 0.00 0.00 0.00 78 1027.5
20181112100551 24 294 6.0 22.0 0.00 0.00 0.00 78 1027.5
20181112100451 24 317 6.0 22.0 0.00 0.00 0.00 78 1027.5
20181112100410 24 304 8.0 22.0 0.00 0.00 0.00 78 1027.5
20181112100208 24 36 10.0 22.0 0.00 0.00 0.00 78 1027.5
20181112100055 24 344 8.0 22.0 0.00 0.00 0.00 78 1027.5
20181112100010 24 315 5.0 17.0 0.00 0.00 0.00 78 1027.5
20181112095909 24 331 4.0 18.0 0.00 0.00 0.00 78 1027.4
20181112095753 24 28 6.0 18.0 0.00 0.00 0.00 77 1027.4
20181112095652 24 340 5.0 19.0 0.00 0.00 0.00 77 1027.4
20181112095607 24 344 6.0 22.0 0.00 0.00 0.00 77 1027.4
20181112095505 24 351 7.0 24.0 0.00 0.00 0.00 77 1027.4
20181112095400 24 337 6.0 24.0 0.00 0.00 0.00 77 1027.4
20181112095258 24 344 4.0 24.0 0.00 0.00 0.00 77 1027.5
20181112095156 24 326 4.0 24.0 0.00 0.00 0.00 77 1027.5
20181112095111 24 42 3.0 24.0 0.00 0.00 0.00 77 1027.6
20181112095010 24 346 3.0 24.0 0.00 0.00 0.00 77 1027.6
20181112094909 24 39 6.0 24.0 0.00 0.00 0.00 77 1027.6
20181112094805 24 342 9.0 24.0 0.00 0.00 0.00 77 1027.6
20181112094702 24 351 9.0 32.0 0.00 0.00 0.00 77 1027.6
20181112094450 24 351 6.0 32.0 0.00 0.00 0.00 77 1027.5
20181112094355 24 5 6.0 32.0 0.00 0.00 0.00 77 1027.5
20181112094254 24 53 7.0 32.0 0.00 0.00 0.00 77 1027.5
20181112094151 24 355 7.0 32.0 0.00 0.00 0.00 77 1027.5
20181112094107 24 360 11.0 32.0 0.00 0.00 0.00 77 1027.5
20181112094002 24 342 10.0 32.0 0.00 0.00 0.00 77 1027.5
20181112093900 24 5 7.0 23.0 0.00 0.00 0.00 77 1027.5
20181112093756 24 32 7.0 20.0 0.00 0.00 0.00 77 1027.5
20181112093657 24 303 9.0 20.0 0.00 0.00 0.00 77 1027.6
20181112093607 24 348 9.0 20.0 0.00 0.00 0.00 77 1027.6
20181112093504 24 355 8.0 20.0 0.00 0.00 0.00 77 1027.6
20181112093403 24 344 6.0 20.0 0.00 0.00 0.00 77 1027.6
20181112093302 24 343 8.0 20.0 0.00 0.00 0.00 77 1027.6
20181112093201 25 5 8.0 20.0 0.00 0.00 0.00 77 1027.6
20181112093056 25 332 7.0 17.0 0.00 0.00 0.00 77 1027.6
20181112093000 25 327 8.0 17.0 0.00 0.00 0.00 77 1027.5
20181112092859 25 292 6.0 17.0 0.00 0.00 0.00 77 1027.6
20181112092800 25 350 5.0 17.0 0.00 0.00 0.00 77 1027.5
20181112092700 25 325 9.0 17.0 0.00 0.00 0.00 77 1027.6
20181112092613 25 320 8.0 17.0 0.00 0.00 0.00 77 1027.6
20181112092507 25 294 8.0 17.0 0.00 0.00 0.00 77 1027.5
20181112092403 25 285 7.0 18.0 0.00 0.00 0.00 76 1027.5
20181112092205 25 337 4.0 24.0 0.00 0.00 0.00 76 1027.6
20181112092059 25 342 4.0 24.0 0.00 0.00 0.00 76 1027.6
20181112091957 25 342 6.0 24.0 0.00 0.00 0.00 76 1027.6
20181112091853 25 32 8.0 24.0 0.00 0.00 0.00 76 1027.6
20181112091751 25 297 9.0 24.0 0.00 0.00 0.00 76 1027.6
20181112091705 25 355 10.0 24.0 0.00 0.00 0.00 76 1027.6
20181112091605 25 38 9.0 24.0 0.00 0.00 0.00 76 1027.6
20181112091502 25 5 12.0 24.0 0.00 0.00 0.00 76 1027.7
20181112091400 25 5 12.0 24.0 0.00 0.00 0.00 76 1027.6
20181112091256 25 333 5.0 21.0 0.00 0.00 0.00 76 1027.6
20181112091151 25 355 8.0 21.0 0.00 0.00 0.00 76 1027.6
20181112091106 25 36 12.0 21.0 0.00 0.00 0.00 76 1027.6
20181112091001 25 355 13.0 21.0 0.00 0.00 0.00 76 1027.6
20181112090902 25 326 10.0 21.0 0.00 0.00 0.00 76 1027.6
20181112090801 25 339 9.0 20.0 0.00 0.00 0.00 76 1027.7
20181112090658 25 327 6.0 20.0 0.00 0.00 0.00 76 1027.7
20181112090552 25 344 4.0 29.0 0.00 0.00 0.00 76 1027.8
20181112090450 25 340 7.0 29.0 0.00 0.00 0.00 76 1027.8
20181112090304 25 40 9.0 29.0 0.00 0.00 0.00 76 1027.9
20181112090206 25 348 9.0 29.0 0.00 0.00 0.00 76 1027.8
20181112090056 25 14 6.0 29.0 0.00 0.00 0.00 76 1027.9
20181112085852 25 347 11.0 29.0 0.00 0.00 0.00 76 1027.9
20181112085751 25 13 11.0 29.0 0.00 0.00 0.00 76 1027.9
20181112085710 25 56 11.0 24.0 0.00 0.00 0.00 76 1027.9
20181112085603 25 321 10.0 21.0 0.00 0.00 0.00 76 1027.8
20181112085505 25 5 10.0 21.0 0.00 0.00 0.00 76 1027.9
20181112085404 26 344 8.0 21.0 0.00 0.00 0.00 76 1027.9
20181112085302 26 340 8.0 21.0 0.00 0.00 0.00 76 1027.9
20181112085201 26 349 9.0 21.0 0.00 0.00 0.00 76 1027.9
20181112085050 26 343 10.0 22.0 0.00 0.00 0.00 76 1028.0
20181112085009 26 346 10.0 22.0 0.00 0.00 0.00 76 1028.0
20181112084906 26 343 9.0 22.0 0.00 0.00 0.00 76 1027.9
20181112084809 26 309 9.0 22.0 0.00 0.00 0.00 76 1027.9
20181112084706 26 59 8.0 22.0 0.00 0.00 0.00 76 1027.9
20181112084557 26 355 9.0 22.0 0.00 0.00 0.00 76 1027.9
20181112084455 26 327 12.0 22.0 0.00 0.00 0.00 76 1027.9
20181112084354 26 350 12.0 22.0 0.00 0.00 0.00 76 1028.0
20181112084159 26 296 5.0 18.0 0.00 0.00 0.00 76 1027.9
20181112084050 26 34 7.0 23.0 0.00 0.00 0.00 76 1028.0
20181112084008 26 318 6.0 23.0 0.00 0.00 0.00 76 1028.0
20181112083904 26 340 6.0 23.0 0.00 0.00 0.00 76 1027.9
20181112083801 26 333 8.0 23.0 0.00 0.00 0.00 76 1028.0
20181112083658 26 5 9.0 23.0 0.00 0.00 0.00 76 1028.0
20181112083551 26 314 9.0 23.0 0.00 0.00 0.00 76 1027.9
20181112083454 26 349 10.0 23.0 0.00 0.00 0.00 76 1028.0
20181112083354 26 328 9.0 23.0 0.00 0.00 0.00 76 1028.0
20181112083254 26 340 6.0 20.0 0.00 0.00 0.00 76 1028.0
20181112083151 26 338 4.0 20.0 0.00 0.00 0.00 76 1028.0
20181112083105 26 5 5.0 20.0 0.00 0.00 0.00 76 1028.0
20181112083001 26 355 7.0 20.0 0.00 0.00 0.00 76 1028.0
20181112082902 26 5 7.0 20.0 0.00 0.00 0.00 76 1028.0
20181112082800 26 317 5.0 17.0 0.00 0.00 0.00 76 1027.9
20181112082553 26 30 8.0 25.0 0.00 0.00 0.00 76 1027.9
20181112082510 26 340 8.0 25.0 0.00 0.00 0.00 76 1027.8
20181112082407 26 355 9.0 25.0 0.00 0.00 0.00 76 1027.8
20181112082307 26 355 10.0 25.0 0.00 0.00 0.00 76 1027.8
20181112082203 26 329 10.0 25.0 0.00 0.00 0.00 76 1027.8
20181112082101 26 306 9.0 25.0 0.00 0.00 0.00 76 1027.8
20181112081857 26 332 12.0 25.0 0.00 0.00 0.00 76 1027.8
20181112081812 26 291 11.0 20.0 0.00 0.00 0.00 76 1027.8
20181112081709 26 316 11.0 20.0 0.00 0.00 0.00 76 1027.8
20181112081600 26 294 11.0 20.0 0.00 0.00 0.00 76 1027.7
20181112081500 26 308 11.0 19.0 0.00 0.00 0.00 76 1027.7
20181112081359 26 328 7.0 22.0 0.00 0.00 0.00 76 1027.7
20181112081209 26 355 7.0 22.0 0.00 0.00 0.00 76 1027.7
20181112081104 26 313 6.0 22.0 0.00 0.00 0.00 76 1027.7
20181112081000 26 315 6.0 22.0 0.00 0.00 0.00 76 1027.7
20181112080755 26 341 7.0 22.0 0.00 0.00 0.00 76 1027.7
20181112080657 26 345 10.0 22.0 0.00 0.00 0.00 76 1027.6
20181112080608 26 344 8.0 22.0 0.00 0.00 0.00 76 1027.6
20181112080508 26 344 5.0 20.0 0.00 0.00 0.00 76 1027.7
20181112080407 26 67 4.0 25.0 0.00 0.00 0.00 76 1027.6
20181112080318 26 346 4.0 25.0 0.00 0.00 0.00 76 1027.6
20181112080237 26 342 5.0 25.0 0.00 0.00 0.00 76 1027.7
20181112080105 26 333 7.0 25.0 0.00 0.00 0.00 76 1027.6
20181112075957 26 333 10.0 25.0 0.00 0.00 0.00 76 1027.7
20181112075901 26 349 8.0 25.0 0.00 0.00 0.00 76 1027.7
20181112075800 26 325 8.0 25.0 0.00 0.00 0.00 76 1027.7
20181112075700 26 337 11.0 25.0 0.00 0.00 0.00 76 1027.7
20181112075609 26 319 9.0 25.0 0.00 0.00 0.00 76 1027.7
20181112075509 26 313 7.0 25.0 0.00 0.00 0.00 76 1027.7
20181112075407 26 334 9.0 23.0 0.00 0.00 0.00 76 1027.6
20181112075308 26 305 9.0 23.0 0.00 0.00 0.00 76 1027.6
20181112075211 26 281 7.0 23.0 0.00 0.00 0.00 76 1027.7
20181112075102 26 340 8.0 23.0 0.00 0.00 0.00 76 1027.6
20181112075001 26 304 6.0 20.0 0.00 0.00 0.00 76 1027.6
20181112074900 26 346 7.0 20.0 0.00 0.00 0.00 76 1027.6
20181112074759 27 316 9.0 22.0 0.00 0.00 0.00 76 1027.6
20181112074657 27 296 9.0 22.0 0.00 0.00 0.00 76 1027.5
20181112074609 27 346 9.0 22.0 0.00 0.00 0.00 76 1027.6
20181112074453 27 315 8.0 26.0 0.00 0.00 0.00 76 1027.6
20181112074351 27 339 7.0 26.0 0.00 0.00 0.00 76 1027.5
20181112074309 27 327 7.0 26.0 0.00 0.00 0.00 76 1027.6
20181112074209 27 345 8.0 26.0 0.00 0.00 0.00 76 1027.5
20181112074104 27 331 9.0 26.0 0.00 0.00 0.00 75 1027.5
20181112074001 27 327 10.0 26.0 0.00 0.00 0.00 75 1027.6
20181112073900 27 333 8.0 26.0 0.00 0.00 0.00 75 1027.5
20181112073805 27 333 8.0 26.0 0.00 0.00 0.00 75 1027.5
20181112073701 27 332 10.0 26.0 0.00 0.00 0.00 75 1027.5
20181112073553 27 355 10.0 22.0 0.00 0.00 0.00 75 1027.6
20181112073504 27 18 11.0 22.0 0.00 0.00 0.00 75 1027.5
20181112073400 27 284 7.0 22.0 0.00 0.00 0.00 75 1027.5
20181112073300 27 9 8.0 23.0 0.00 0.00 0.00 75 1027.5
20181112073152 27 336 10.0 23.0 0.00 0.00 0.00 76 1027.5
20181112073050 27 5 10.0 23.0 0.00 0.00 0.00 75 1027.5
20181112073011 27 5 10.0 23.0 0.00 0.00 0.00 76 1027.5
20181112072911 27 294 8.0 23.0 0.00 0.00 0.00 76 1027.4
20181112072803 27 329 9.0 23.0 0.00 0.00 0.00 76 1027.4
20181112072719 27 319 10.0 23.0 0.00 0.00 0.00 76 1027.3
20181112072638 27 355 11.0 23.0 0.00 0.00 0.00 76 1027.3
20181112072357 27 307 10.0 20.0 0.00 0.00 0.00 76 1027.3
20181112072300 27 307 9.0 20.0 0.00 0.00 0.00 76 1027.2
20181112072159 27 338 8.0 20.0 0.00 0.00 0.00 76 1027.1
20181112072053 27 337 8.0 20.0 0.00 0.00 0.00 76 1027.1
20181112071953 27 331 7.0 28.0 0.00 0.00 0.00 76 1027.1
20181112071808 28 342 10.0 28.0 0.00 0.00 0.00 76 1027.1
20181112071708 28 342 7.0 28.0 0.00 0.00 0.00 76 1027.1
20181112071605 28 326 6.0 28.0 0.00 0.00 0.00 76 1027.1
20181112071503 28 335 9.0 28.0 0.00 0.00 0.00 76 1027.0
20181112071405 28 351 10.0 28.0 0.00 0.00 0.00 76 1027.0
20181112071300 28 329 11.0 28.0 0.00 0.00 0.00 76 1027.0
20181112071156 28 325 13.0 28.0 0.00 0.00 0.00 76 1027.0
20181112071108 28 327 11.0 28.0 0.00 0.00 0.00 76 1027.0
20181112071008 28 334 8.0 26.0 0.00 0.00 0.00 76 1027.0
20181112070908 28 322 9.0 26.0 0.00 0.00 0.00 76 1027.0
20181112070804 28 327 9.0 26.0 0.00 0.00 0.00 76 1026.9
20181112070704 28 331 9.0 26.0 0.00 0.00 0.00 76 1026.8
20181112070554 28 355 10.0 26.0 0.00 0.00 0.00 76 1026.9
20181112070450 28 279 8.0 26.0 0.00 0.00 0.00 76 1026.8
20181112070407 28 287 7.0 17.0 0.00 0.00 0.00 76 1026.8
20181112070303 28 350 7.0 17.0 0.00 0.00 0.00 76 1026.8
20181112070207 28 348 5.0 17.0 0.00 0.00 0.00 76 1026.8
20181112070056 28 314 6.0 17.0 0.00 0.00 0.00 76 1026.8
20181112065957 28 319 10.0 17.0 0.00 0.00 0.00 76 1026.8
20181112065852 28 319 10.0 17.0 0.00 0.00 0.00 76 1026.8
20181112065753 28 302 7.0 15.0 0.00 0.00 0.00 76 1026.8
20181112065710 28 323 7.0 20.0 0.00 0.00 0.00 76 1026.9
20181112065603 28 308 8.0 20.0 0.00 0.00 0.00 76 1026.9
20181112065358 28 338 9.0 20.0 0.00 0.00 0.00 76 1026.9
20181112065259 28 304 8.0 20.0 0.00 0.00 0.00 75 1026.9
20181112065158 28 343 7.0 20.0 0.00 0.00 0.00 75 1026.9
20181112065110 28 310 8.0 20.0 0.00 0.00 0.00 75 1026.9
20181112065007 28 342 10.0 20.0 0.00 0.00 0.00 75 1026.9
20181112064905 28 355 10.0 20.0 0.00 0.00 0.00 75 1026.9
20181112064804 28 312 10.0 19.0 0.00 0.00 0.00 76 1026.9
20181112064656 28 325 11.0 20.0 0.00 0.00 0.00 76 1026.9
20181112064608 28 292 9.0 20.0 0.00 0.00 0.00 76 1026.9
20181112064503 28 333 6.0 20.0 0.00 0.00 0.00 76 1026.9
20181112064400 28 328 8.0 20.0 0.00 0.00 0.00 76 1026.9
20181112064300 28 324 10.0 20.0 0.00 0.00 0.00 76 1026.8
20181112064200 28 314 8.0 20.0 0.00 0.00 0.00 76 1026.8
20181112064059 28 311 7.0 20.0 0.00 0.00 0.00 76 1026.8
20181112063955 28 355 11.0 20.0 0.00 0.00 0.00 75 1026.8
20181112063911 28 329 12.0 20.0 0.00 0.00 0.00 75 1026.8
20181112063808 28 303 12.0 19.0 0.00 0.00 0.00 76 1026.8
20181112063708 28 350 9.0 19.0 0.00 0.00 0.00 76 1026.8
20181112063554 28 316 6.0 18.0 0.00 0.00 0.00 75 1026.9
20181112063450 28 319 8.0 18.0 0.00 0.00 0.00 75 1026.9
20181112063355 28 311 6.0 18.0 0.00 0.00 0.00 76 1026.9
20181112063253 28 325 4.0 18.0 0.00 0.00 0.00 75 1026.9
20181112063210 28 329 5.0 18.0 0.00 0.00 0.00 75 1026.9
20181112063103 28 329 6.0 18.0 0.00 0.00 0.00 75 1026.9
20181112063001 28 313 5.0 18.0 0.00 0.00 0.00 75 1026.9
20181112062901 28 355 7.0 18.0 0.00 0.00 0.00 75 1026.9
20181112062759 28 360 7.0 18.0 0.00 0.00 0.00 75 1026.9
20181112062702 28 336 4.0 13.0 0.00 0.00 0.00 76 1026.9
20181112062557 28 311 5.0 13.0 0.00 0.00 0.00 76 1026.9
20181112062453 28 287 6.0 13.0 0.00 0.00 0.00 76 1026.9
20181112062408 28 323 6.0 13.0 0.00 0.00 0.00 76 1026.9
20181112062307 28 355 7.0 13.0 0.00 0.00 0.00 76 1026.9
20181112062205 28 338 7.0 13.0 0.00 0.00 0.00 76 1026.9
20181112062059 28 317 7.0 13.0 0.00 0.00 0.00 76 1026.9
20181112062001 28 343 7.0 14.0 0.00 0.00 0.00 76 1026.9
20181112061857 28 294 6.0 14.0 0.00 0.00 0.00 76 1026.8
20181112061756 28 304 5.0 18.0 0.00 0.00 0.00 76 1026.8
20181112061652 28 333 4.0 18.0 0.00 0.00 0.00 76 1026.8
20181112061606 28 336 4.0 18.0 0.00 0.00 0.00 76 1026.8
20181112061506 28 334 6.0 18.0 0.00 0.00 0.00 76 1026.8
20181112061404 28 340 7.0 18.0 0.00 0.00 0.00 76 1026.7
20181112061303 28 342 6.0 18.0 0.00 0.00 0.00 76 1026.8
20181112061203 28 326 6.0 19.0 0.00 0.00 0.00 76 1026.7
20181112061054 28 346 7.0 19.0 0.00 0.00 0.00 76 1026.8
20181112060953 28 319 8.0 19.0 0.00 0.00 0.00 76 1026.7
20181112060853 28 319 8.0 19.0 0.00 0.00 0.00 76 1026.8
20181112060752 28 319 8.0 19.0 0.00 0.00 0.00 76 1026.7
20181112060708 28 319 9.0 19.0 0.00 0.00 0.00 76 1026.7
20181112060603 28 315 10.0 20.0 0.00 0.00 0.00 76 1026.8
20181112060500 28 285 9.0 20.0 0.00 0.00 0.00 76 1026.7
20181112060356 28 342 10.0 20.0 0.00 0.00 0.00 76 1026.8
20181112060312 28 298 11.0 20.0 0.00 0.00 0.00 76 1026.7
20181112060230 28 337 12.0 20.0 0.00 0.00 0.00 76 1026.7
20181112060102 28 300 10.0 20.0 0.00 0.00 0.00 76 1026.7
20181112055958 28 336 11.0 20.0 0.00 0.00 0.00 76 1026.7
20181112055857 28 305 12.0 20.0 0.00 0.00 0.00 76 1026.7
20181112055757 28 317 10.0 20.0 0.00 0.00 0.00 76 1026.6
20181112055653 28 327 8.0 17.0 0.00 0.00 0.00 76 1026.7
20181112055605 28 344 8.0 17.0 0.00 0.00 0.00 76 1026.7
20181112055501 28 314 10.0 17.0 0.00 0.00 0.00 76 1026.7
20181112055400 28 325 8.0 17.0 0.00 0.00 0.00 76 1026.6
20181112055154 28 308 4.0 14.0 0.00 0.00 0.00 76 1026.5
20181112055052 28 305 6.0 15.0 0.00 0.00 0.00 76 1026.5
20181112054950 28 307 7.0 15.0 0.00 0.00 0.00 76 1026.5
20181112054910 28 323 8.0 16.0 0.00 0.00 0.00 76 1026.5
20181112054804 28 319 6.0 16.0 0.00 0.00 0.00 76 1026.5
20181112054703 28 300 3.0 16.0 0.00 0.00 0.00 75 1026.5
20181112054556 28 327 5.0 20.0 0.00 0.00 0.00 75 1026.5
20181112054453 28 341 6.0 24.0 0.00 0.00 0.00 75 1026.5
20181112054358 28 336 8.0 24.0 0.00 0.00 0.00 75 1026.5
20181112054257 28 333 9.0 24.0 0.00 0.00 0.00 75 1026.5
20181112054157 28 348 10.0 24.0 0.00 0.00 0.00 75 1026.4
20181112054106 28 322 10.0 24.0 0.00 0.00 0.00 75 1026.4
20181112054003 28 299 9.0 24.0 0.00 0.00 0.00 75 1026.4
20181112053859 28 313 12.0 24.0 0.00 0.00 0.00 76 1026.4
20181112053758 28 309 13.0 24.0 0.00 0.00 0.00 76 1026.4
20181112053701 28 300 11.0 22.0 0.00 0.00 0.00 76 1026.4
20181112053556 28 250 11.0 22.0 0.00 0.00 0.00 76 1026.4
20181112053455 28 292 12.0 22.0 0.00 0.00 0.00 76 1026.5
20181112053354 28 324 12.0 21.0 0.00 0.00 0.00 76 1026.5
20181112053253 29 293 12.0 21.0 0.00 0.00 0.00 76 1026.4
20181112053106 29 296 9.0 20.0 0.00 0.00 0.00 77 1026.5
20181112053011 29 295 8.0 20.0 0.00 0.00 0.00 77 1026.4
20181112052909 29 346 9.0 20.0 0.00 0.00 0.00 77 1026.4
20181112052805 29 282 11.0 20.0 0.00 0.00 0.00 77 1026.4
20181112052704 29 319 12.0 21.0 0.00 0.00 0.00 77 1026.4
20181112052601 29 298 11.0 21.0 0.00 0.00 0.00 77 1026.4
20181112052453 29 306 9.0 21.0 0.00 0.00 0.00 77 1026.4
20181112052358 29 302 9.0 21.0 0.00 0.00 0.00 77 1026.4
20181112052251 29 319 10.0 21.0 0.00 0.00 0.00 77 1026.4
20181112052209 29 303 11.0 21.0 0.00 0.00 0.00 77 1026.4
20181112052104 29 360 11.0 21.0 0.00 0.00 0.00 77 1026.4
20181112052000 29 310 9.0 21.0 0.00 0.00 0.00 77 1026.4
20181112051853 29 329 11.0 21.0 0.00 0.00 0.00 77 1026.4
20181112051652 29 296 9.0 19.0 0.00 0.00 0.00 77 1026.4
20181112051606 29 296 8.0 19.0 0.00 0.00 0.00 77 1026.4
20181112051505 29 279 5.0 19.0 0.00 0.00 0.00 77 1026.4
20181112051405 29 311 7.0 19.0 0.00 0.00 0.00 77 1026.3
20181112051304 29 307 7.0 19.0 0.00 0.00 0.00 77 1026.3
20181112051204 29 281 7.0 19.0 0.00 0.00 0.00 77 1026.4
20181112051058 29 317 6.0 19.0 0.00 0.00 0.00 77 1026.2
20181112050951 29 305 8.0 19.0 0.00 0.00 0.00 77 1026.2
20181112050854 29 313 6.0 19.0 0.00 0.00 0.00 77 1026.2
20181112050751 29 306 4.0 17.0 0.00 0.00 0.00 77 1026.2
20181112050709 29 331 6.0 17.0 0.00 0.00 0.00 77 1026.2
20181112050602 29 344 10.0 17.0 0.00 0.00 0.00 77 1026.2
20181112050502 29 306 9.0 17.0 0.00 0.00 0.00 77 1026.2
20181112050400 29 301 7.0 16.0 0.00 0.00 0.00 77 1026.2
20181112050200 29 307 7.0 16.0 0.00 0.00 0.00 77 1026.1
20181112050054 29 340 7.0 16.0 0.00 0.00 0.00 77 1026.2
20181112045954 29 298 7.0 16.0 0.00 0.00 0.00 77 1026.1
20181112045852 29 339 7.0 16.0 0.00 0.00 0.00 77 1026.1
20181112045811 29 324 5.0 16.0 0.00 0.00 0.00 77 1026.1
20181112045706 29 330 5.0 18.0 0.00 0.00 0.00 77 1026.1
20181112045556 29 328 6.0 18.0 0.00 0.00 0.00 77 1026.1
20181112045456 29 340 8.0 18.0 0.00 0.00 0.00 77 1026.1
20181112045354 29 303 6.0 18.0 0.00 0.00 0.00 77 1026.0
20181112045153 29 309 8.0 18.0 0.00 0.00 0.00 77 1026.1
20181112045104 29 292 8.0 18.0 0.00 0.00 0.00 77 1026.1
20181112045000 29 297 10.0 18.0 0.00 0.00 0.00 77 1026.0
20181112044853 29 328 9.0 18.0 0.00 0.00 0.00 77 1026.1
20181112044757 29 313 7.0 16.0 0.00 0.00 0.00 77 1026.1
20181112044656 29 315 6.0 14.0 0.00 0.00 0.00 77 1026.1
20181112044507 29 310 4.0 16.0 0.00 0.00 0.00 77 1026.0
20181112044305 29 355 4.0 16.0 0.00 0.00 0.00 77 1026.0
20181112044157 29 319 5.0 16.0 0.00 0.00 0.00 77 1026.0
20181112044056 29 306 4.0 16.0 0.00 0.00 0.00 77 1026.0
20181112043953 29 298 6.0 16.0 0.00 0.00 0.00 77 1026.0
20181112043910 29 310 8.0 16.0 0.00 0.00 0.00 77 1026.0
20181112043806 29 315 8.0 16.0 0.00 0.00 0.00 77 1025.9
20181112043704 29 330 5.0 16.0 0.00 0.00 0.00 77 1025.9
20181112043557 29 336 3.0 14.0 0.00 0.00 0.00 77 1025.9
20181112043509 29 313 4.0 14.0 0.00 0.00 0.00 77 1025.9
20181112043411 29 346 6.0 14.0 0.00 0.00 0.00 77 1025.8
20181112043309 29 324 7.0 14.0 0.00 0.00 0.00 77 1025.7
20181112043208 29 302 8.0 14.0 0.00 0.00 0.00 77 1025.8
20181112043101 28 151 9.0 14.0 0.00 0.00 0.00 78 1025.7
20181112043000 28 151 9.0 14.0 0.00 0.00 0.00 78 1025.7
20181112042747 28 151 9.0 14.0 0.00 0.00 0.00 78 1025.7
20181112042506 28 151 9.0 14.0 0.00 0.00 0.00 78 1025.7
20181112042405 28 151 9.0 14.0 0.00 0.00 0.00 78 1025.7
20181112042302 28 151 9.0 14.0 0.00 0.00 0.00 78 1025.7
20181112042200 28 151 10.0 14.0 0.00 0.00 0.00 78 1025.7
20181112042057 28 151 10.0 14.0 0.00 0.00 0.00 79 1025.7
20181112041951 28 151 10.0 14.0 0.00 0.00 0.00 79 1025.6
20181112041910 28 152 9.0 14.0 0.00 0.00 0.00 79 1025.6
20181112041750 28 151 9.0 14.0 0.00 0.00 0.00 80 1025.6
20181112041710 28 151 9.0 14.0 0.00 0.00 0.00 80 1025.6
20181112041604 28 151 9.0 14.0 0.00 0.00 0.00 80 1025.5
20181112041500 28 152 9.0 14.0 0.00 0.00 0.00 80 1025.5
20181112041358 28 151 9.0 14.0 0.00 0.00 0.00 80 1025.6
20181112041257 28 151 9.0 14.0 0.00 0.00 0.00 80 1025.5
20181112041157 28 151 9.0 14.0 0.00 0.00 0.00 80 1025.5
20181112041053 28 151 9.0 14.0 0.00 0.00 0.00 81 1025.5
20181112041010 28 152 8.0 14.0 0.00 0.00 0.00 82 1025.5
20181112040909 28 151 8.0 11.0 0.00 0.00 0.00 82 1025.5
20181112040807 28 151 8.0 11.0 0.00 0.00 0.00 82 1025.5
20181112040701 28 151 7.0 10.0 0.00 0.00 0.00 82 1025.5
20181112040554 28 151 7.0 10.0 0.00 0.00 0.00 82 1025.6
20181112040510 28 151 7.0 10.0 0.00 0.00 0.00 82 1025.6
20181112040408 28 151 7.0 10.0 0.00 0.00 0.00 82 1025.6
20181112040306 28 151 7.0 10.0 0.00 0.00 0.00 83 1025.7
20181112040206 28 151 7.0 11.0 0.00 0.00 0.00 82 1025.6
20181112040058 28 151 7.0 11.0 0.00 0.00 0.00 82 1025.6
20181112035952 28 152 8.0 11.0 0.00 0.00 0.00 82 1025.6
20181112035909 28 152 8.0 11.0 0.00 0.00 0.00 82 1025.6
20181112035807 28 152 8.0 11.0 0.00 0.00 0.00 83 1025.5
20181112035706 28 151 8.0 11.0 0.00 0.00 0.00 83 1025.5
20181112035559 28 151 8.0 11.0 0.00 0.00 0.00 83 1025.5
20181112035456 28 151 7.0 11.0 0.00 0.00 0.00 83 1025.5
20181112035352 28 151 6.0 11.0 0.00 0.00 0.00 84 1025.4
20181112035252 28 151 6.0 7.0 0.00 0.00 0.00 84 1025.4
20181112035149 28 151 5.0 7.0 0.00 0.00 0.00 84 1025.4
20181112035104 28 151 5.0 7.0 0.00 0.00 0.00 84 1025.4
20181112034902 28 151 5.0 7.0 0.00 0.00 0.00 84 1025.3
20181112034801 28 151 5.0 7.0 0.00 0.00 0.00 84 1025.3
20181112034700 28 152 5.0 8.0 0.00 0.00 0.00 84 1025.3
20181112034553 28 152 5.0 9.0 0.00 0.00 0.00 83 1025.2
20181112034510 28 151 5.0 9.0 0.00 0.00 0.00 83 1025.2
20181112034410 28 151 5.0 9.0 0.00 0.00 0.00 83 1025.2
20181112034251 28 151 5.0 9.0 0.00 0.00 0.00 83 1025.1
20181112034211 28 151 5.0 9.0 0.00 0.00 0.00 83 1025.1
20181112034103 29 151 5.0 9.0 0.00 0.00 0.00 83 1025.1
20181112033959 29 151 6.0 9.0 0.00 0.00 0.00 82 1025.1
20181112033858 29 151 6.0 9.0 0.00 0.00 0.00 82 1025.0
20181112033755 29 152 7.0 9.0 0.00 0.00 0.00 82 1025.0
20181112033653 29 151 7.0 9.0 0.00 0.00 0.00 82 1025.0
20181112033610 29 152 7.0 9.0 0.00 0.00 0.00 82 1025.0
20181112033507 29 151 7.0 9.0 0.00 0.00 0.00 83 1025.0
20181112033353 29 151 5.0 9.0 0.00 0.00 0.00 83 1025.0
20181112033251 29 151 5.0 7.0 0.00 0.00 0.00 83 1025.0
20181112033208 29 151 5.0 7.0 0.00 0.00 0.00 83 1025.0
20181112033101 29 152 4.0 7.0 0.00 0.00 0.00 83 1024.9
20181112032958 29 151 4.0 7.0 0.00 0.00 0.00 83 1025.0
20181112032902 29 151 4.0 7.0 0.00 0.00 0.00 83 1025.0
20181112032801 29 152 5.0 7.0 0.00 0.00 0.00 83 1024.9
20181112032659 29 151 5.0 7.0 0.00 0.00 0.00 83 1024.9
20181112032553 29 152 5.0 7.0 0.00 0.00 0.00 83 1024.9
20181112032454 29 152 5.0 7.0 0.00 0.00 0.00 83 1024.9
20181112032353 28 152 5.0 7.0 0.00 0.00 0.00 83 1024.9
20181112032251 28 151 5.0 6.0 0.00 0.00 0.00 83 1024.9
20181112032152 28 151 4.0 6.0 0.00 0.00 0.00 84 1024.8
20181112032108 28 151 4.0 6.0 0.00 0.00 0.00 84 1024.8
20181112032007 28 151 4.0 6.0 0.00 0.00 0.00 84 1024.8
20181112031905 28 151 4.0 6.0 0.00 0.00 0.00 84 1024.8
20181112031803 28 151 3.0 5.0 0.00 0.00 0.00 83 1024.8
20181112031703 28 151 3.0 5.0 0.00 0.00 0.00 83 1024.8
20181112031553 28 152 3.0 5.0 0.00 0.00 0.00 83 1024.8
20181112031457 28 152 4.0 5.0 0.00 0.00 0.00 83 1024.8
20181112031355 29 151 4.0 7.0 0.00 0.00 0.00 83 1024.8
20181112031252 29 152 4.0 7.0 0.00 0.00 0.00 83 1024.8
20181112031150 29 152 4.0 7.0 0.00 0.00 0.00 83 1024.8
20181112031104 29 152 4.0 7.0 0.00 0.00 0.00 82 1024.8
20181112030959 29 151 4.0 8.0 0.00 0.00 0.00 82 1024.8
20181112030858 29 151 4.0 9.0 0.00 0.00 0.00 82 1024.8
20181112030759 29 151 5.0 9.0 0.00 0.00 0.00 82 1024.7
20181112030700 29 151 5.0 9.0 0.00 0.00 0.00 82 1024.7
20181112030556 29 151 5.0 9.0 0.00 0.00 0.00 82 1024.7
20181112030454 29 151 5.0 9.0 0.00 0.00 0.00 82 1024.7
20181112030352 29 152 5.0 9.0 0.00 0.00 0.00 82 1024.7
20181112030230 29 151 6.0 9.0 0.00 0.00 0.00 81 1024.7
20181112025959 29 151 6.0 9.0 0.00 0.00 0.00 81 1024.6
20181112025900 29 151 6.0 9.0 0.00 0.00 0.00 81 1024.6
20181112025758 29 151 6.0 9.0 0.00 0.00 0.00 81 1024.6
20181112025657 29 152 5.0 8.0 0.00 0.00 0.00 81 1024.6
20181112025608 29 151 5.0 8.0 0.00 0.00 0.00 81 1024.7
20181112025508 29 151 5.0 8.0 0.00 0.00 0.00 81 1024.7
20181112025350 29 151 5.0 8.0 0.00 0.00 0.00 81 1024.7
20181112025307 29 151 5.0 8.0 0.00 0.00 0.00 81 1024.7
20181112025204 29 151 6.0 8.0 0.00 0.00 0.00 81 1024.7
20181112025057 29 152 5.0 8.0 0.00 0.00 0.00 81 1024.7
20181112024956 29 152 6.0 8.0 0.00 0.00 0.00 81 1024.7
20181112024852 30 152 5.0 8.0 0.00 0.00 0.00 81 1024.7
20181112024808 30 151 5.0 8.0 0.00 0.00 0.00 81 1024.7
20181112024651 30 152 5.0 8.0 0.00 0.00 0.00 81 1024.7
20181112024604 30 151 5.0 8.0 0.00 0.00 0.00 81 1024.7
20181112024500 30 152 5.0 8.0 0.00 0.00 0.00 81 1024.7
20181112024357 30 151 5.0 8.0 0.00 0.00 0.00 81 1024.7
20181112024255 30 152 5.0 8.0 0.00 0.00 0.00 81 1024.7
20181112024104 30 152 6.0 8.0 0.00 0.00 0.00 81 1024.7
20181112024003 30 151 6.0 8.0 0.00 0.00 0.00 82 1024.6
20181112023909 30 152 6.0 7.0 0.00 0.00 0.00 82 1024.6
20181112023759 30 151 5.0 7.0 0.00 0.00 0.00 82 1024.6
20181112023652 30 151 4.0 5.0 0.00 0.00 0.00 82 1024.6
20181112023608 30 152 4.0 5.0 0.00 0.00 0.00 82 1024.6
20181112023503 30 152 4.0 6.0 0.00 0.00 0.00 81 1024.6
20181112023402 30 151 4.0 6.0 0.00 0.00 0.00 81 1024.6
20181112023300 30 151 4.0 6.0 0.00 0.00 0.00 81 1024.6
20181112023202 30 151 4.0 6.0 0.00 0.00 0.00 81 1024.6
20181112023052 30 151 4.0 7.0 0.00 0.00 0.00 81 1024.6
20181112023009 30 151 4.0 7.0 0.00 0.00 0.00 81 1024.6
20181112022904 30 152 4.0 7.0 0.00 0.00 0.00 81 1024.6
20181112022800 30 152 4.0 7.0 0.00 0.00 0.00 81 1024.6
20181112022659 30 151 4.0 7.0 0.00 0.00 0.00 81 1024.6
20181112022553 30 151 4.0 8.0 0.00 0.00 0.00 81 1024.5
20181112022453 30 151 5.0 8.0 0.00 0.00 0.00 81 1024.5
20181112022351 30 152 5.0 8.0 0.00 0.00 0.00 81 1024.5
20181112022310 30 152 5.0 8.0 0.00 0.00 0.00 81 1024.5
20181112022206 30 152 5.0 8.0 0.00 0.00 0.00 81 1024.5
20181112022058 30 151 5.0 8.0 0.00 0.00 0.00 80 1024.5
20181112021959 30 152 5.0 8.0 0.00 0.00 0.00 80 1024.5
20181112021855 30 152 4.0 8.0 0.00 0.00 0.00 80 1024.5
20181112021758 30 151 4.0 8.0 0.00 0.00 0.00 80 1024.5
20181112021657 30 151 3.0 7.0 0.00 0.00 0.00 80 1024.5
20181112021609 31 151 3.0 7.0 0.00 0.00 0.00 80 1024.5
20181112021508 31 151 3.0 7.0 0.00 0.00 0.00 80 1024.5
20181112021407 31 151 2.0 9.0 0.00 0.00 0.00 79 1024.5
20181112021304 31 151 3.0 9.0 0.00 0.00 0.00 79 1024.5
20181112021203 31 151 4.0 9.0 0.00 0.00 0.00 79 1024.5
20181112021100 31 152 5.0 9.0 0.00 0.00 0.00 79 1024.5
20181112020959 31 152 5.0 9.0 0.00 0.00 0.00 79 1024.5
20181112020858 31 151 5.0 9.0 0.00 0.00 0.00 79 1024.5
20181112020758 31 151 5.0 9.0 0.00 0.00 0.00 79 1024.5
20181112020654 31 151 6.0 9.0 0.00 0.00 0.00 78 1024.4
20181112020608 31 151 6.0 9.0 0.00 0.00 0.00 78 1024.4
20181112020449 31 151 5.0 10.0 0.00 0.00 0.00 78 1024.4
20181112020408 31 151 6.0 10.0 0.00 0.00 0.00 78 1024.4
20181112020308 31 151 6.0 10.0 0.00 0.00 0.00 78 1024.4
20181112020054 31 151 5.0 10.0 0.00 0.00 0.00 78 1024.4
20181112020008 31 151 6.0 11.0 0.00 0.00 0.00 78 1024.4
20181112015906 31 151 6.0 11.0 0.00 0.00 0.00 78 1024.4
20181112015806 31 151 6.0 11.0 0.00 0.00 0.00 78 1024.4
20181112015704 32 151 6.0 11.0 0.00 0.00 0.00 78 1024.4
20181112015602 32 152 6.0 12.0 0.00 0.00 0.00 78 1024.4
20181112015459 32 152 6.0 12.0 0.00 0.00 0.00 78 1024.4
20181112015352 32 151 6.0 12.0 0.00 0.00 0.00 78 1024.3
20181112015307 32 151 7.0 12.0 0.00 0.00 0.00 78 1024.3
20181112015203 32 151 7.0 12.0 0.00 0.00 0.00 78 1024.2
20181112015054 32 151 7.0 12.0 0.00 0.00 0.00 78 1024.2
20181112014953 32 152 8.0 12.0 0.00 0.00 0.00 78 1024.2
20181112014855 32 151 8.0 12.0 0.00 0.00 0.00 78 1024.2
20181112014751 32 152 7.0 11.0 0.00 0.00 0.00 78 1024.3
20181112014713 32 152 7.0 11.0 0.00 0.00 0.00 78 1024.3
20181112014600 32 151 7.0 11.0 0.00 0.00 0.00 78 1024.3
20181112014501 32 151 8.0 11.0 0.00 0.00 0.00 78 1024.3
20181112014357 32 151 8.0 11.0 0.00 0.00 0.00 78 1024.3
20181112014252 32 151 8.0 11.0 0.00 0.00 0.00 78 1024.4
20181112014156 32 151 7.0 11.0 0.00 0.00 0.00 78 1024.4
20181112014107 32 151 7.0 11.0 0.00 0.00 0.00 78 1024.3
20181112014003 32 152 6.0 11.0 0.00 0.00 0.00 78 1024.3
20181112013901 32 151 7.0 11.0 0.00 0.00 0.00 78 1024.3
20181112013759 32 151 8.0 11.0 0.00 0.00 0.00 78 1024.3
20181112013659 32 151 7.0 11.0 0.00 0.00 0.00 78 1024.4
20181112013612 32 151 7.0 11.0 0.00 0.00 0.00 78 1024.3
20181112013452 32 151 8.0 11.0 0.00 0.00 0.00 78 1024.3
20181112013409 32 152 8.0 13.0 0.00 0.00 0.00 78 1024.3
20181112013308 32 151 7.0 13.0 0.00 0.00 0.00 77 1024.2
20181112013207 32 151 6.0 13.0 0.00 0.00 0.00 78 1024.2
20181112013100 32 151 6.0 13.0 0.00 0.00 0.00 78 1024.2
20181112012954 32 151 6.0 13.0 0.00 0.00 0.00 78 1024.2
20181112012851 32 152 7.0 13.0 0.00 0.00 0.00 78 1024.1
20181112012752 32 151 8.0 13.0 0.00 0.00 0.00 77 1024.1
20181112012710 32 151 9.0 14.0 0.00 0.00 0.00 77 1024.1
20181112012559 32 151 10.0 14.0 0.00 0.00 0.00 77 1024.2
20181112012458 32 151 9.0 14.0 0.00 0.00 0.00 77 1024.1
20181112012358 33 151 7.0 14.0 0.00 0.00 0.00 77 1024.2
20181112012255 33 152 6.0 14.0 0.00 0.00 0.00 77 1024.1
20181112012152 34 355 5.0 15.0 0.00 0.00 0.00 76 1024.1
20181112012107 34 355 5.0 15.0 0.00 0.00 0.00 76 1024.1
20181112012008 34 346 6.0 15.0 0.00 0.00 0.00 76 1024.1
20181112011905 34 329 7.0 15.0 0.00 0.00 0.00 76 1024.1
20181112011806 34 332 6.0 15.0 0.00 0.00 0.00 76 1024.1
20181112011705 34 320 5.0 15.0 0.00 0.00 0.00 76 1024.0
20181112011554 34 348 7.0 15.0 0.00 0.00 0.00 76 1024.0
20181112011510 34 5 6.0 15.0 0.00 0.00 0.00 76 1024.0
20181112011352 34 307 5.0 14.0 0.00 0.00 0.00 75 1023.9
20181112011249 34 329 5.0 14.0 0.00 0.00 0.00 75 1023.9
20181112011208 34 340 4.0 14.0 0.00 0.00 0.00 75 1023.9
20181112011056 35 355 3.0 17.0 0.00 0.00 0.00 75 1023.9
20181112010951 35 312 4.0 17.0 0.00 0.00 0.00 75 1023.9
20181112010803 35 326 6.0 17.0 0.00 0.00 0.00 75 1023.9
20181112010707 35 313 4.0 17.0 0.00 0.00 0.00 75 1023.9
20181112010600 35 298 5.0 17.0 0.00 0.00 0.00 75 1023.9
20181112010459 35 303 7.0 17.0 0.00 0.00 0.00 75 1023.9
20181112010358 35 323 7.0 17.0 0.00 0.00 0.00 75 1023.9
20181112010254 35 320 6.0 17.0 0.00 0.00 0.00 75 1023.8
20181112010151 35 303 6.0 17.0 0.00 0.00 0.00 75 1023.8
20181112010106 35 25 4.0 17.0 0.00 0.00 0.00 75 1023.8
20181112010009 35 25 4.0 17.0 0.00 0.00 0.00 75 1023.7
20181112005907 35 319 4.0 17.0 0.00 0.00 0.00 75 1023.8
20181112005756 35 315 6.0 17.0 0.00 0.00 0.00 75 1023.8
20181112005654 35 333 9.0 21.0 0.00 0.00 0.00 74 1023.8
20181112005609 35 321 9.0 21.0 0.00 0.00 0.00 74 1023.8
20181112005507 35 325 7.0 21.0 0.00 0.00 0.00 74 1023.8
20181112005406 35 284 5.0 21.0 0.00 0.00 0.00 74 1023.7
20181112005310 35 313 5.0 21.0 0.00 0.00 0.00 74 1023.7
20181112005208 35 304 6.0 21.0 0.00 0.00 0.00 74 1023.7
20181112005101 35 306 7.0 21.0 0.00 0.00 0.00 74 1023.7
20181112004957 35 350 8.0 21.0 0.00 0.00 0.00 74 1023.6
20181112004853 35 312 10.0 21.0 0.00 0.00 0.00 74 1023.6
20181112004753 35 320 9.0 19.0 0.00 0.00 0.00 73 1023.6